<- Previous Day | Today | Next Day ->

All Data for 16 May 2021

 

Time A - D Temp A - D Dew Point A - D Humidity A - D Pressure A - D Wind A - D Wind Dir Gust A - D Rain Rate A - D Rain Total
00:00 10.2 9.0 92 999.2 9.2 S 13.6 0.0 0.0
00:01 10.2 9.0 92 999.3 6.0 W 12.1 0.0 0.0
00:02 10.2 9.0 92 999.3 6.0 W 12.1 0.0 0.0
00:04 10.1 8.7 91 999.1 7.6 W 11.4 0.0 0.0
00:05 10.1 8.7 91 999.2 10.7 S 10.7 0.0 0.0
00:06 10.0 8.6 91 999.4 10.7 W 10.7 0.0 0.0
00:07 10.0 8.6 91 999.4 6.9 S 10.7 0.0 0.0
00:08 10.0 8.6 91 999.3 7.6 S 10.7 0.0 0.0
00:09 10.0 8.6 91 999.1 6.9 W 10.7 0.0 0.0
00:10 10.0 8.6 91 999.2 6.9 W 10.7 0.0 0.0
00:11 10.0 8.6 91 999.2 8.3 SW 10.7 0.0 0.0
00:12 10.0 8.6 91 999.4 6.9 SW 10.7 0.0 0.0
00:13 10.0 8.6 91 999.0 9.8 SW 10.7 0.0 0.0
00:14 10.0 8.6 91 999.3 5.4 W 10.7 0.0 0.0
00:15 10.0 8.6 91 999.2 6.9 SW 10.7 0.0 0.0
00:16 10.0 8.6 91 999.3 7.6 SW 10.7 0.0 0.0
00:18 10.0 8.6 91 999.1 7.6 SW 9.8 0.0 0.0
00:19 10.1 8.7 91 999.1 7.6 S 9.8 0.0 0.0
00:20 10.1 8.7 91 999.2 7.6 W 9.8 0.0 0.0
00:21 10.1 8.7 91 999.0 6.9 S 9.8 0.0 0.0
00:22 10.1 8.7 91 998.9 7.6 SW 9.8 0.0 0.0
00:23 10.1 8.7 91 999.0 6.0 SW 8.3 0.0 0.0
00:24 10.1 8.7 91 999.0 6.0 SW 8.3 0.0 0.0
00:25 10.2 9.0 92 999.0 9.2 SW 9.2 0.0 0.0
00:26 10.2 9.0 92 999.0 9.8 SW 9.8 0.0 0.0
00:27 10.2 9.0 92 999.0 8.3 SW 9.8 0.0 0.0
00:28 10.2 9.0 92 999.1 7.6 SW 9.8 0.0 0.0
00:29 10.2 9.0 92 999.0 10.7 W 10.7 0.0 0.0
00:30 10.2 9.0 92 999.1 10.7 S 10.7 0.0 0.0
00:32 10.3 9.1 92 998.9 12.1 W 15.2 0.0 0.0
00:33 10.3 9.1 92 998.9 14.5 SW 15.2 0.0 0.0
00:34 10.4 9.2 92 999.0 13.6 SW 15.2 0.0 0.0
00:35 10.4 9.2 92 998.9 14.5 SSW 15.2 0.0 0.0
00:36 10.4 9.2 92 999.0 12.1 SW 15.2 0.0 0.0
00:37 10.4 9.2 92 999.1 12.1 SW 15.2 0.0 0.0
00:38 10.4 9.2 92 998.9 12.1 S 15.2 0.0 0.0
00:39 10.4 9.2 92 999.0 10.7 SW 15.2 0.0 0.0
00:40 10.4 9.2 92 999.1 14.5 W 15.2 0.0 0.0
00:41 10.4 9.2 92 999.1 10.7 SW 15.2 0.0 0.0
00:42 10.4 9.2 92 999.1 12.1 SW 14.5 0.0 0.0
00:43 10.4 9.2 92 998.8 12.1 SW 14.5 0.0 0.0
00:44 10.4 9.2 92 998.9 10.7 SW 14.5 0.0 0.0
00:46 10.5 9.3 92 999.1 13.6 W 14.5 0.0 0.0
00:47 10.5 9.3 92 998.8 13.0 SW 14.5 0.0 0.0
00:48 10.5 9.3 92 999.0 15.9 S 15.9 0.0 0.0
00:49 10.5 9.3 92 998.8 15.9 SW 15.9 0.0 0.0
00:50 10.5 9.3 92 999.1 12.1 SW 15.9 0.0 0.0
00:51 10.5 9.3 92 998.7 10.7 SW 15.9 0.0 0.0
00:52 10.5 9.3 92 998.7 10.7 SW 15.9 0.0 0.0
00:53 10.5 9.3 92 998.8 12.1 SSW 15.9 0.0 0.0
00:54 10.5 9.3 92 998.9 12.1 S 15.9 0.0 0.0
00:55 10.5 9.3 92 998.7 8.3 SW 15.9 0.0 0.0
00:56 10.5 9.3 92 998.7 11.4 SW 15.9 0.0 0.0
00:57 10.5 9.3 92 998.8 12.1 S 15.9 0.0 0.0
00:58 10.5 9.3 92 998.7 12.1 SW 15.9 0.0 0.0
00:59 10.5 9.3 92 998.7 11.4 SW 13.0 0.0 0.0
01:00 10.5 9.3 92 998.9 11.4 SW 13.0 0.0 0.0
01:01 10.5 9.3 92 999.0 11.4 SW 13.0 0.0 0.0
01:02 10.5 9.3 92 998.7 11.4 SW 13.0 0.0 0.0
01:03 10.5 9.3 92 998.6 11.4 SW 12.1 0.0 0.0
01:04 10.5 9.3 92 998.7 11.4 SW 12.1 0.0 0.0
01:05 10.5 9.3 92 998.6 11.4 SW 12.1 0.0 0.0
01:06 10.5 9.3 92 998.8 11.4 SW 12.1 0.0 0.0
01:07 10.6 9.4 92 998.8 13.0 S 13.0 0.0 0.0
01:08 10.6 9.4 92 998.8 13.6 SW 13.6 0.0 0.0
01:09 10.6 9.4 92 998.6 14.5 SW 14.5 0.0 0.0
01:10 10.6 9.4 92 998.7 14.5 SW 14.5 0.0 0.0
01:11 10.6 9.4 92 998.6 15.9 W 15.9 0.0 0.0
01:12 10.6 9.4 92 998.7 15.9 W 15.9 0.0 0.0
01:14 10.6 9.4 92 998.6 12.1 W 15.9 0.0 0.0
01:15 10.6 9.4 92 998.7 9.2 SW 15.9 0.0 0.0
01:16 10.6 9.4 92 998.5 15.2 S 15.9 0.0 0.0
01:17 10.6 9.4 92 998.6 13.6 SW 15.9 0.0 0.0
01:18 10.6 9.4 92 998.4 9.8 SW 15.9 0.0 0.0
01:19 10.6 9.4 92 998.7 15.2 S 15.9 0.0 0.0
01:20 10.6 9.4 92 998.7 15.2 S 15.9 0.0 0.0
01:21 10.6 9.4 92 998.8 12.1 SW 15.9 0.0 0.0
01:22 10.6 9.4 92 998.7 12.1 SW 15.2 0.0 0.0
01:23 10.6 9.4 92 998.5 15.2 W 15.2 0.0 0.0
01:24 10.6 9.4 92 998.6 12.1 NW 15.2 0.0 0.0
01:25 10.6 9.4 92 998.5 9.8 S 15.2 0.0 0.0
01:26 10.6 9.4 92 998.6 9.8 SW 15.2 0.0 0.0
01:28 10.6 9.4 92 998.6 9.8 S 15.2 0.0 0.0
01:29 10.6 9.4 92 998.5 15.2 SW 15.2 0.0 0.0
01:30 10.6 9.4 92 998.6 12.1 SW 15.2 0.0 0.0
01:31 10.6 9.4 92 998.4 10.7 W 15.2 0.0 0.0
01:32 10.6 9.4 92 998.7 10.7 WSW 15.2 0.0 0.0
01:33 10.6 9.4 92 998.5 12.1 SW 15.2 0.0 0.0
01:34 10.6 9.4 92 998.5 10.7 SW 15.2 0.0 0.0
01:35 10.6 9.4 92 998.8 10.7 SW 15.2 0.0 0.0
01:36 10.6 9.4 92 998.6 11.4 SW 15.2 0.0 0.0
01:37 10.5 9.3 92 998.4 7.6 SW 15.2 0.0 0.0
01:38 10.5 9.3 92 998.3 13.0 SW 15.2 0.0 0.0
01:39 10.5 9.3 92 998.3 11.4 SW 15.2 0.0 0.0
01:40 10.5 9.3 92 998.5 9.8 W 13.0 0.0 0.0
01:41 10.5 9.3 92 998.5 13.0 SW 13.0 0.0 0.0
01:42 10.5 9.3 92 998.5 13.0 W 13.0 0.0 0.0
01:43 10.5 9.3 92 998.5 10.7 SW 13.0 0.0 0.0
01:44 10.5 9.3 92 998.4 11.4 SW 13.0 0.0 0.0
01:45 10.5 9.3 92 998.3 11.4 S 13.0 0.0 0.0
01:46 10.5 9.3 92 998.3 8.3 S 13.0 0.0 0.0
01:47 10.5 9.3 92 998.4 9.8 W 13.0 0.0 0.0
01:48 10.5 9.3 92 998.4 9.8 W 13.0 0.0 0.0
01:49 10.5 9.3 92 998.3 12.1 W 13.6 0.0 0.0
01:50 10.4 9.2 92 998.3 11.4 SW 13.6 0.0 0.0
01:51 10.4 9.2 92 998.2 13.0 WSW 13.6 0.0 0.0
01:52 10.4 9.2 92 998.1 12.1 SW 13.6 0.0 0.0
01:53 10.4 9.2 92 998.3 10.7 SW 13.6 0.0 0.0
01:54 10.4 9.2 92 998.1 13.0 N 13.6 0.0 0.0
01:55 10.4 9.2 92 998.3 12.1 WSW 13.6 0.0 0.0
01:56 10.4 9.2 92 998.3 13.6 W 13.6 0.0 0.0
01:57 10.4 9.2 92 998.4 13.0 W 13.6 0.0 0.0
01:58 10.5 9.3 92 998.3 13.0 WSW 13.6 0.0 0.0
01:59 10.5 9.3 92 998.2 14.5 SW 14.5 0.0 0.0
02:00 10.5 9.3 92 998.2 12.1 W 14.5 0.0 0.0
02:01 10.5 9.3 92 998.1 13.6 S 14.5 0.0 0.0
02:02 10.5 9.3 92 998.2 15.2 SW 15.2 0.0 0.0
02:03 10.5 9.3 92 998.2 16.8 WSW 16.8 0.0 0.0
02:04 10.5 9.3 92 998.1 13.0 S 16.8 0.0 0.0
02:05 10.5 9.3 92 998.1 13.0 S 16.8 0.0 0.0
02:06 10.5 9.3 92 998.2 13.0 SW 16.8 0.0 0.0
02:07 10.5 9.3 92 998.1 9.8 SW 16.8 0.0 0.0
02:08 10.5 9.3 92 998.1 12.1 W 16.8 0.0 0.0
02:09 10.5 9.3 92 998.4 11.4 NW 16.8 0.0 0.0
02:10 10.5 9.3 92 998.0 13.0 S 16.8 0.0 0.0
02:11 10.5 9.3 92 998.2 10.7 SW 16.8 0.0 0.0
02:12 10.5 9.3 92 998.2 13.6 NW 16.8 0.0 0.0
02:13 10.5 9.3 92 998.0 13.6 SW 13.6 0.0 0.0
02:14 10.5 9.3 92 998.0 13.0 SW 13.6 0.0 0.0
02:15 10.5 9.3 92 998.0 10.7 W 13.6 0.0 0.0
02:16 10.5 9.3 92 998.0 10.7 W 13.6 0.0 0.0
02:17 10.5 9.3 92 998.0 15.2 SW 15.2 0.0 0.0
02:18 10.5 9.3 92 998.0 12.1 SW 15.2 0.0 0.0
02:19 10.5 9.3 92 998.1 11.4 SW 15.2 0.0 0.0
02:20 10.5 9.3 92 998.3 13.0 SW 15.2 0.0 0.0
02:21 10.5 9.3 92 998.1 15.2 NW 15.2 0.0 0.0
02:22 10.5 9.3 92 998.0 10.7 SW 15.2 0.0 0.0
02:23 10.5 9.3 92 998.0 12.1 W 15.2 0.0 0.0
02:24 10.5 9.3 92 998.0 13.0 SW 15.2 0.0 0.0
02:25 10.5 9.3 92 997.9 14.5 SW 15.2 0.0 0.0
02:26 10.5 9.3 92 997.8 16.8 WSW 16.8 0.0 0.0
02:27 10.5 9.3 92 998.0 13.6 SW 16.8 0.0 0.0
02:28 10.4 9.2 92 998.0 12.1 W 16.8 0.0 0.0
02:29 10.4 9.2 92 997.9 12.1 SW 16.8 0.0 0.0
02:30 10.4 9.2 92 997.9 11.4 S 16.8 0.0 0.0
02:31 10.4 9.2 92 997.9 11.4 NW 16.8 0.0 0.0
02:32 10.4 9.2 92 998.0 9.2 SW 16.8 0.0 0.0
02:33 10.4 9.2 92 997.8 13.0 S 16.8 0.0 0.0
02:34 10.4 9.2 92 997.9 9.8 SW 16.8 0.0 0.0
02:35 10.4 9.2 92 997.9 9.2 W 16.8 0.0 0.0
02:36 10.4 9.2 92 997.9 9.2 SW 16.8 0.0 0.0
02:37 10.4 9.2 92 997.9 9.8 SW 13.6 0.0 0.0
02:38 10.5 9.3 92 997.7 10.7 S 13.6 0.0 0.0
02:39 10.5 9.3 92 997.7 9.2 S 13.6 0.0 0.0
02:40 10.5 9.3 92 997.7 12.1 WSW 13.6 0.0 0.0
02:41 10.5 9.3 92 997.8 12.1 W 13.6 0.0 0.0
02:42 10.5 9.3 92 997.8 13.6 SW 13.6 0.0 0.0
02:43 10.5 9.3 92 997.8 13.6 SW 13.6 0.0 0.0
02:44 10.5 9.3 92 997.8 13.6 SW 13.6 0.0 0.0
02:45 10.5 9.3 92 997.5 15.2 SW 15.2 0.0 0.0
02:46 10.5 9.3 92 997.6 13.6 SW 15.2 0.0 0.0
02:47 10.5 9.3 92 997.8 12.1 S 15.2 0.0 0.0
02:48 10.5 9.3 92 997.6 14.5 SW 15.2 0.0 0.0
02:49 10.5 9.3 92 997.6 12.1 SW 15.2 0.0 0.0
02:50 10.5 9.3 92 997.7 14.5 SW 15.2 0.0 0.0
02:51 10.5 9.3 92 997.6 16.8 W 16.8 0.0 0.0
02:52 10.5 9.3 92 997.7 13.0 SSE 16.8 0.0 0.0
02:53 10.5 9.3 92 997.6 13.0 S 16.8 0.0 0.0
02:54 10.5 9.3 92 997.7 13.0 SW 16.8 0.0 0.0
02:55 10.5 9.3 92 997.6 11.4 SW 16.8 0.0 0.0
02:56 10.5 9.3 92 997.7 9.2 S 16.8 0.0 0.0
02:57 10.5 9.3 92 997.7 12.1 SW 16.8 0.0 0.0
02:58 10.5 9.3 92 997.7 13.0 SW 16.8 0.0 0.0
02:59 10.5 9.3 92 997.6 13.0 SSW 16.8 0.0 0.0
03:00 10.5 9.3 92 997.7 14.5 S 16.8 0.0 0.0
03:01 10.5 9.3 92 997.6 14.5 S 16.8 0.0 0.0
03:02 10.5 9.3 92 997.5 14.5 S 14.5 0.0 0.0
03:03 10.5 9.3 92 997.6 14.5 S 14.5 0.0 0.0
03:04 10.5 9.3 92 997.5 14.5 S 14.5 0.0 0.0
03:05 10.5 9.3 92 997.6 14.5 S 14.5 0.0 0.0
03:06 10.5 9.3 92 997.5 14.5 S 14.5 0.0 0.0
03:07 10.5 9.3 92 997.4 13.6 SW 14.5 0.0 0.0
03:08 10.5 9.3 92 997.5 11.4 SW 14.5 0.0 0.0
03:09 10.5 9.3 92 997.6 11.4 SW 14.5 0.0 0.0
03:10 10.5 9.3 92 997.5 12.1 SW 14.5 0.0 0.0
03:11 10.5 9.3 92 997.3 13.0 SW 14.5 0.0 0.0
03:12 10.5 9.3 92 997.3 13.0 SW 14.5 0.0 0.0
03:13 10.5 9.3 92 997.4 15.2 WSW 15.2 0.0 0.0
03:14 10.5 9.3 92 997.3 15.9 SW 15.9 0.0 0.0
03:15 10.5 9.3 92 997.3 16.8 SW 16.8 0.0 0.0
03:16 10.5 9.3 92 997.4 17.4 N 17.4 0.0 0.0
03:17 10.5 9.3 92 997.6 15.9 SW 18.3 0.0 0.0
03:18 10.5 9.3 92 997.4 15.9 SW 18.3 0.0 0.0
03:19 10.5 9.3 92 997.3 14.5 SW 18.3 0.0 0.0
03:20 10.5 9.3 92 997.5 13.0 SE 18.3 0.0 0.0
03:21 10.5 9.3 92 997.5 18.3 S 18.3 0.0 0.0
03:22 10.5 9.3 92 997.1 23.5 S 23.5 0.8 0.1
03:23 10.5 9.3 92 997.2 19.0 SW 23.5 0.8 0.1
03:24 10.5 9.3 92 997.4 19.0 SW 23.5 0.8 0.1
03:25 10.5 9.3 92 997.5 17.4 SW 23.5 0.8 0.1
03:26 10.5 9.3 92 997.2 15.2 WSW 23.5 0.8 0.1
03:27 10.6 9.4 92 997.4 15.2 SW 23.5 0.8 0.1
03:28 10.6 9.4 92 997.2 13.6 SW 23.5 0.8 0.1
03:29 10.6 9.4 92 997.3 15.2 SSW 23.5 1.5 0.2
03:30 10.5 9.3 92 997.4 14.5 SW 23.5 2.3 0.3
03:31 10.5 9.3 92 997.4 15.9 SW 23.5 2.3 0.3
03:32 10.5 9.3 92 997.3 15.9 SW 23.5 1.5 0.3
03:33 10.5 9.3 92 997.3 21.3 W 21.3 1.5 0.3
03:34 10.5 9.3 92 997.5 19.7 SW 21.3 1.5 0.3
03:35 10.4 9.2 92 997.4 19.7 WSW 21.3 0.8 0.3
03:36 10.4 9.2 92 997.4 18.3 SW 21.3 0.8 0.3
03:37 10.4 9.2 92 997.1 18.3 SW 21.3 0.8 0.3
03:38 10.4 9.2 92 997.4 15.2 SW 21.3 0.8 0.3
03:39 10.3 9.1 92 997.3 13.6 W 21.3 0.0 0.3
03:40 10.3 9.1 92 997.3 13.6 W 21.3 0.0 0.3
03:41 10.3 8.9 91 997.3 13.0 SW 21.3 0.0 0.3
03:42 10.3 8.9 91 997.4 13.0 WSW 21.3 0.0 0.3
03:43 10.2 8.8 91 997.4 15.2 S 21.3 0.0 0.3
03:44 10.2 8.8 91 997.5 16.8 WSW 19.7 0.0 0.3
03:45 10.1 8.7 91 997.3 15.9 SW 19.7 0.0 0.3
03:46 10.1 8.7 91 997.3 16.8 S 18.3 0.0 0.3
03:47 10.0 8.6 91 997.3 12.1 S 18.3 0.0 0.3
03:48 10.0 8.6 91 997.3 8.3 SW 16.8 0.0 0.3
03:49 10.0 8.6 91 997.7 11.4 SW 16.8 0.0 0.3
03:50 9.9 8.5 91 997.3 13.0 SW 16.8 0.0 0.3
03:51 9.9 8.5 91 997.4 10.7 N 16.8 0.0 0.3
03:52 9.9 8.5 91 997.2 9.8 W 16.8 0.0 0.3
03:53 9.9 8.5 91 997.2 13.6 SW 16.8 0.0 0.3
03:54 9.8 8.4 91 997.4 13.6 W 16.8 0.0 0.3
03:55 9.8 8.4 91 997.4 12.1 SW 16.8 0.0 0.3
03:56 9.8 8.4 91 997.4 12.1 SW 16.8 0.0 0.3
03:57 9.7 8.3 91 997.3 13.6 SW 13.6 0.0 0.3
03:58 9.7 8.3 91 997.3 11.4 S 13.6 0.0 0.3
03:59 9.7 8.3 91 997.3 12.1 S 13.6 0.0 0.3
04:00 9.6 8.2 91 997.3 9.8 S 13.6 0.0 0.3
04:01 9.6 8.2 91 997.3 10.7 S 13.6 0.0 0.3
04:02 9.6 8.2 91 997.3 10.7 S 13.6 0.0 0.3
04:03 9.5 7.9 90 997.2 12.1 SW 13.6 0.0 0.3
04:04 9.5 7.9 90 997.2 9.8 SW 13.6 0.0 0.3
04:05 9.4 7.8 90 997.2 9.2 SW 13.6 0.0 0.3
04:06 9.4 7.8 90 997.3 9.2 SW 13.6 0.0 0.3
04:07 9.4 7.8 90 997.3 9.8 WSW 12.1 0.0 0.3
04:08 9.4 7.8 90 997.3 9.8 WSW 12.1 0.0 0.3
04:09 9.4 7.8 90 997.2 9.8 SW 12.1 0.0 0.3
04:10 9.4 7.8 90 997.2 9.8 SW 12.1 0.0 0.3
04:11 9.3 7.7 90 997.2 9.2 SW 12.1 0.0 0.3
04:12 9.3 7.7 90 997.1 6.9 S 12.1 0.0 0.3
04:13 9.3 7.7 90 997.2 8.3 S 12.1 0.0 0.3
04:14 9.3 7.7 90 997.1 8.3 SW 9.8 0.0 0.3
04:15 9.3 7.7 90 997.1 6.9 SW 9.8 0.0 0.3
04:16 9.3 7.7 90 997.2 7.6 W 9.8 0.0 0.3
04:17 9.3 7.7 90 997.3 6.0 SW 9.8 0.0 0.3
04:18 9.3 7.7 90 997.2 6.0 SW 9.8 0.0 0.3
04:19 9.3 7.7 90 997.1 7.6 WSW 9.8 0.0 0.3
04:20 9.3 7.7 90 997.1 6.0 SW 9.8 0.0 0.3
04:21 9.3 7.7 90 997.0 6.0 SW 9.8 0.0 0.3
04:22 9.3 7.7 90 997.3 8.3 SW 9.8 0.0 0.3
04:23 9.3 7.7 90 997.1 8.3 SW 8.3 0.0 0.3
04:24 9.3 7.7 90 997.1 13.0 W 13.0 0.0 0.3
04:25 9.3 7.7 90 997.2 8.3 SW 13.0 0.0 0.3
04:26 9.4 7.8 90 997.1 9.2 SW 13.0 0.0 0.3
04:27 9.4 7.8 90 997.1 8.3 S 13.0 0.0 0.3
04:28 9.4 7.8 90 997.1 8.3 S 13.0 0.0 0.3
04:30 9.4 7.8 90 996.9 9.8 N 13.0 0.0 0.3
04:31 9.4 7.8 90 997.2 6.9 SW 13.0 0.0 0.3
04:32 9.4 7.8 90 997.1 8.3 NNW 13.0 0.0 0.3
04:33 9.4 7.8 90 997.1 6.9 SW 13.0 0.0 0.3
04:34 9.5 7.9 90 997.0 6.9 SW 9.8 0.0 0.3
04:35 9.5 7.9 90 997.0 10.7 SW 10.7 0.0 0.3
04:36 9.5 7.9 90 997.0 10.7 SW 10.7 0.0 0.3
04:37 9.5 7.9 90 996.9 9.8 SW 10.7 0.0 0.3
04:38 9.5 7.9 90 997.0 10.7 WSW 10.7 0.0 0.3
04:39 9.5 7.9 90 997.0 9.8 S 10.7 0.0 0.3
04:40 9.6 8.0 90 997.0 8.3 S 10.7 0.0 0.3
04:41 9.6 8.0 90 996.8 11.4 WSW 11.4 0.0 0.3
04:42 9.6 8.0 90 997.0 11.4 SW 11.4 0.0 0.3
04:43 9.6 8.0 90 997.1 11.4 SW 11.4 0.0 0.3
04:44 9.6 8.0 90 997.0 15.9 SW 15.9 0.0 0.3
04:45 9.6 8.0 90 997.0 15.9 SW 15.9 0.0 0.3
04:46 9.7 8.3 91 996.9 9.2 SW 15.9 0.0 0.3
04:47 9.8 8.4 91 996.7 14.5 SW 15.9 0.0 0.3
04:48 9.8 8.4 91 996.9 13.6 S 15.9 0.0 0.3
04:49 9.8 8.4 91 997.1 13.6 S 15.9 0.0 0.3
04:50 9.8 8.4 91 996.8 13.6 S 15.9 0.0 0.3
04:51 9.9 8.5 91 996.7 12.1 WSW 15.9 0.0 0.3
04:52 9.9 8.5 91 996.7 12.1 SW 15.9 0.0 0.3
04:53 10.0 8.6 91 996.9 14.5 SW 15.9 0.0 0.3
04:54 10.0 8.6 91 996.9 13.6 SW 15.9 0.0 0.3
04:55 10.0 8.6 91 996.7 12.1 SW 15.9 0.0 0.3
04:56 10.0 8.6 91 996.9 9.8 SW 14.5 0.0 0.3
04:57 10.1 8.7 91 996.8 13.0 S 14.5 0.0 0.3
04:58 10.1 8.7 91 996.9 13.6 SW 14.5 0.0 0.3
04:59 10.1 8.7 91 996.8 15.2 SW 15.2 0.0 0.3
05:00 10.1 8.7 91 996.8 15.2 SW 15.2 0.0 0.3
05:01 10.1 8.7 91 996.9 15.2 SW 15.2 0.0 0.3
05:02 10.1 8.7 91 996.8 15.2 SW 15.2 0.0 0.3
05:03 10.1 8.7 91 996.9 15.2 SW 15.2 0.0 0.3
05:04 10.1 8.7 91 996.9 15.2 SW 15.2 0.0 0.3
05:05 10.1 8.7 91 996.8 15.2 SW 15.2 0.0 0.3
05:06 10.1 8.7 91 996.5 15.2 SW 15.2 0.0 0.3
05:07 10.2 8.8 91 996.8 15.2 SW 15.2 0.0 0.3
05:08 10.2 8.8 91 996.8 15.9 SW 15.9 0.0 0.3
05:09 10.2 8.8 91 996.7 21.3 WSW 21.3 0.0 0.3
05:10 10.2 8.8 91 996.8 15.2 NW 21.3 0.0 0.3
05:11 10.2 8.8 91 996.6 17.4 WSW 21.3 0.0 0.3
05:12 10.3 8.9 91 996.8 19.0 W 21.3 0.0 0.3
05:13 10.3 8.9 91 997.0 14.5 W 21.3 0.0 0.3
05:14 10.3 8.9 91 996.6 14.5 W 21.3 0.0 0.3
05:15 10.3 8.9 91 996.7 14.5 SW 21.3 0.0 0.3
05:16 10.3 8.9 91 996.8 14.5 SW 21.3 0.0 0.3
05:17 10.3 8.9 91 996.6 12.1 SW 21.3 0.0 0.3
05:18 10.3 8.9 91 996.7 13.0 SW 21.3 0.0 0.3
05:19 10.3 9.1 92 996.8 13.0 SSW 21.3 0.0 0.3
05:20 10.3 9.1 92 996.4 15.2 S 19.0 0.0 0.3
05:21 10.3 9.1 92 996.5 11.4 SW 19.0 0.0 0.3
05:22 10.3 9.1 92 996.6 13.0 WSW 19.0 0.0 0.3
05:23 10.3 9.1 92 996.5 12.1 SW 15.2 0.0 0.3
05:24 10.3 9.1 92 996.6 12.1 SW 15.2 0.0 0.3
05:25 10.3 9.1 92 996.6 15.2 SW 15.2 0.0 0.3
05:26 10.2 9.0 92 996.6 10.7 SW 15.2 0.0 0.3
05:27 10.2 9.0 92 996.4 13.6 W 15.2 0.0 0.3
05:28 10.2 9.0 92 996.5 14.5 W 15.2 0.0 0.3
05:29 10.2 9.0 92 996.6 11.4 S 15.2 0.0 0.3
05:30 10.2 9.0 92 996.8 16.8 S 16.8 0.0 0.3
05:31 10.1 8.7 91 996.6 19.0 W 19.0 0.0 0.3
05:32 10.1 8.7 91 996.6 19.0 W 19.0 0.0 0.3
05:33 10.0 8.6 91 996.6 15.2 SW 19.0 0.0 0.3
05:34 10.0 8.6 91 996.6 14.5 SW 19.0 0.0 0.3
05:35 10.0 8.6 91 996.6 9.2 S 19.0 0.0 0.3
05:36 10.0 8.6 91 996.6 14.5 SW 19.0 0.0 0.3
05:37 9.9 8.5 91 996.6 14.5 SW 19.0 0.0 0.3
05:38 9.9 8.5 91 996.6 12.1 SW 19.0 0.0 0.3
05:39 9.9 8.5 91 996.6 13.6 WSW 19.0 0.0 0.3
05:40 9.8 8.4 91 996.6 16.8 SW 19.0 0.0 0.3
05:41 9.8 8.4 91 996.7 12.1 SW 19.0 0.0 0.3
05:42 9.8 8.4 91 996.6 15.2 WSW 17.4 0.8 0.4
05:43 9.7 8.3 91 996.8 15.2 SW 17.4 0.8 0.4
05:44 9.7 8.3 91 996.6 14.5 SW 17.4 0.8 0.4
05:45 9.7 8.3 91 996.8 13.0 SW 17.4 2.3 0.5
05:46 9.6 8.2 91 996.8 14.5 SW 17.4 2.3 0.5
05:47 9.6 8.2 91 996.7 17.4 SW 17.4 1.5 0.5
05:48 9.6 8.2 91 996.8 17.4 SW 17.4 1.5 0.5
05:49 9.5 8.1 91 996.7 14.5 SW 17.4 2.3 0.6
05:50 9.5 8.1 91 996.8 14.5 SW 17.4 0.8 0.6
05:51 9.5 8.1 91 996.8 10.7 WSW 17.4 0.8 0.6
05:52 9.5 8.1 91 996.7 11.4 SW 17.4 2.3 0.7
05:53 9.5 8.1 91 996.8 13.6 SSW 17.4 2.3 0.7
05:54 9.5 8.1 91 996.7 15.9 SW 17.4 2.3 0.8
05:55 9.5 8.1 91 996.6 13.0 SW 17.4 3.0 0.8
05:56 9.5 8.1 91 996.8 13.0 WNW 17.4 3.0 0.9
05:57 9.5 8.1 91 996.6 11.4 SW 17.4 3.8 1.0
05:58 9.5 8.1 91 996.8 10.7 W 17.4 4.5 1.1
05:59 9.5 8.1 91 996.6 10.7 S 15.9 3.8 1.1
06:00 9.5 8.1 91 996.4 9.2 W 15.9 3.8 1.3
06:01 9.5 8.1 91 996.8 10.7 SW 15.9 7.6 1.4
06:02 9.5 8.1 91 996.6 9.2 SW 15.9 5.3 1.4
06:03 9.5 8.1 91 996.7 9.2 S 15.9 5.3 1.5
06:04 9.5 8.1 91 996.6 9.2 S 15.9 5.3 1.5
06:05 9.5 8.1 91 996.4 6.9 S 15.9 6.0 1.6
06:06 9.5 8.1 91 996.5 6.0 W 13.0 2.3 1.6
06:07 9.5 8.1 91 996.6 6.0 W 11.4 2.3 1.6
06:08 9.4 8.0 91 996.4 6.9 SW 11.4 1.5 1.6
06:09 9.4 8.0 91 996.4 4.5 W 10.7 1.5 1.6
06:10 9.4 8.0 91 996.4 4.5 S 10.7 0.0 1.6
06:11 9.4 8.0 91 996.4 6.0 S 10.7 0.0 1.6
06:12 9.4 8.0 91 996.4 6.9 S 9.2 0.0 1.6
06:13 9.4 8.0 91 996.4 6.0 SW 9.2 0.0 1.6
06:14 9.4 8.0 91 996.2 8.3 S 9.2 0.0 1.6
06:15 9.4 8.0 91 996.2 6.9 WNW 8.3 0.0 1.6
06:16 9.4 8.0 91 996.4 16.8 SW 16.8 0.0 1.6
06:17 9.5 8.1 91 996.4 12.1 S 16.8 0.0 1.6
06:18 9.5 8.1 91 996.3 12.1 S 16.8 0.0 1.6
06:19 9.5 8.1 91 996.2 13.6 W 16.8 0.0 1.6
06:20 9.6 8.2 91 996.2 10.7 SW 16.8 0.0 1.6
06:21 9.6 8.2 91 996.5 13.0 SW 16.8 0.0 1.6
06:22 9.6 8.2 91 996.3 11.4 S 16.8 0.8 1.7
06:23 9.7 8.3 91 996.3 12.1 SW 16.8 0.8 1.7
06:24 9.8 8.4 91 996.2 12.1 SW 16.8 0.8 1.7
06:25 9.8 8.4 91 996.3 13.6 NW 16.8 0.8 1.7
06:26 9.9 8.5 91 996.1 13.6 SW 16.8 0.8 1.7
06:27 10.0 8.6 91 996.0 15.2 NW 15.2 0.0 1.7
06:28 10.0 8.6 91 996.2 13.6 SW 15.2 0.0 1.7
06:29 10.0 8.6 91 996.2 16.8 NW 16.8 0.0 1.7
06:30 10.1 8.7 91 996.2 15.2 W 16.8 0.0 1.7
06:31 10.1 8.7 91 996.0 12.1 S 16.8 0.0 1.7
06:32 10.1 8.7 91 996.0 13.6 NE 16.8 0.0 1.7
06:33 10.2 9.0 92 996.1 15.9 W 16.8 0.0 1.7
06:34 10.2 9.0 92 996.0 12.1 SW 16.8 0.0 1.7
06:35 10.2 9.0 92 996.0 12.1 NW 16.8 0.0 1.7
06:36 10.3 9.1 92 996.2 16.8 NW 16.8 0.0 1.7
06:37 10.3 9.1 92 995.9 15.2 SW 16.8 0.0 1.7
06:38 10.3 9.1 92 996.0 15.2 S 16.8 0.0 1.7
06:39 10.3 9.1 92 996.2 16.8 SW 16.8 0.0 1.7
06:40 10.3 9.1 92 996.1 13.6 SW 16.8 0.0 1.7
06:41 10.3 9.1 92 995.9 15.2 W 16.8 0.0 1.7
06:42 10.4 9.2 92 996.0 14.5 SW 16.8 0.0 1.7
06:43 10.4 9.2 92 996.1 24.4 WSW 24.4 0.0 1.7
06:44 10.4 9.2 92 996.1 24.4 SW 24.4 0.0 1.7
06:45 10.4 9.2 92 995.8 17.4 SW 24.4 0.0 1.7
06:46 10.4 9.2 92 996.0 16.8 WSW 24.4 0.0 1.7
06:47 10.4 9.2 92 996.1 16.8 SW 24.4 0.0 1.7
06:48 10.4 9.2 92 996.0 14.5 W 24.4 0.0 1.7
06:49 10.4 9.2 92 996.1 15.9 SW 24.4 0.0 1.7
06:50 10.4 9.2 92 996.1 18.3 WSW 24.4 0.0 1.7
06:51 10.4 9.2 92 996.0 15.9 WSW 24.4 0.0 1.7
06:52 10.4 9.2 92 996.0 14.5 W 24.4 0.0 1.7
06:53 10.4 9.2 92 996.0 17.4 W 24.4 0.0 1.7
06:54 10.4 9.2 92 996.1 18.3 SW 18.3 0.0 1.7
06:55 10.5 9.3 92 995.9 13.6 W 18.3 0.0 1.8
06:56 10.5 9.3 92 995.9 16.8 SW 18.3 0.8 1.8
06:57 10.5 9.3 92 996.0 15.9 SW 18.3 0.8 1.8
06:58 10.5 9.3 92 996.0 15.9 SW 18.3 0.8 1.8
06:59 10.5 9.3 92 996.1 10.7 NW 18.3 0.8 1.8
07:00 10.5 9.3 92 995.9 15.9 SW 18.3 0.8 1.8
07:01 10.5 9.3 92 996.1 15.9 SW 18.3 0.0 1.8
07:02 10.5 9.3 92 995.9 15.9 SW 18.3 0.0 1.8
07:03 10.5 9.3 92 995.8 15.9 SW 18.3 0.0 1.8
07:04 10.5 9.3 92 996.0 15.9 SW 17.4 0.0 1.8
07:05 10.5 9.3 92 995.9 15.9 SW 16.8 0.0 1.8
07:06 10.5 9.3 92 996.1 15.9 SW 16.8 0.0 1.8
07:07 10.5 9.3 92 995.8 19.7 SW 19.7 0.0 1.8
07:08 10.5 9.3 92 995.6 14.5 SW 19.7 0.0 1.8
07:09 10.5 9.3 92 995.7 15.2 W 19.7 0.0 1.8
07:10 10.5 9.3 92 995.7 14.5 SW 19.7 0.0 1.8
07:11 10.5 9.3 92 995.9 14.5 S 19.7 0.0 1.8
07:12 10.5 9.3 92 995.7 14.5 SW 19.7 0.0 1.8
07:13 10.5 9.3 92 995.6 17.4 SW 19.7 0.0 1.8
07:14 10.5 9.3 92 995.8 13.0 S 19.7 0.0 1.8
07:15 10.5 9.3 92 995.8 15.9 SW 19.7 0.0 1.8
07:16 10.5 9.3 92 995.7 15.2 SW 19.7 0.0 1.8
07:17 10.5 9.3 92 995.8 23.5 S 23.5 0.0 1.8
07:18 10.5 9.3 92 995.6 16.8 SW 23.5 0.0 1.8
07:19 10.5 9.3 92 995.6 14.5 SW 23.5 0.0 1.8
07:20 10.5 9.3 92 995.6 14.5 S 23.5 0.0 1.8
07:21 10.5 9.3 92 995.6 16.8 SW 23.5 0.0 1.8
07:22 10.6 9.4 92 995.7 19.7 S 23.5 0.0 1.8
07:23 10.6 9.5 93 995.8 22.1 SSW 23.5 0.0 1.8
07:24 10.6 9.5 93 995.7 15.2 W 23.5 0.0 1.8
07:25 10.6 9.5 93 995.5 15.9 WSW 23.5 0.0 1.8
07:26 10.7 9.6 93 995.7 15.9 SW 23.5 0.0 1.8
07:27 10.7 9.6 93 995.7 20.6 WSW 23.5 0.0 1.8
07:28 10.7 9.6 93 995.6 15.9 S 22.1 0.0 1.8
07:29 10.7 9.6 93 995.7 15.9 SW 22.1 0.8 1.8
07:30 10.7 9.6 93 995.8 17.4 NW 22.1 0.8 1.8
07:31 10.7 9.6 93 995.6 17.4 SW 22.1 0.8 1.8
07:32 10.7 9.6 93 995.6 25.1 WSW 25.1 1.5 2.0
07:33 10.7 9.6 93 995.7 19.7 SW 25.1 2.3 2.0
07:34 10.7 9.6 93 995.7 15.2 SW 25.1 2.3 2.0
07:35 10.7 9.6 93 995.6 16.8 W 25.1 2.3 2.0
07:36 10.7 9.6 93 995.6 12.1 W 25.1 2.3 2.0
07:37 10.7 9.6 93 995.7 19.0 SW 25.1 1.5 2.0
07:38 10.7 9.6 93 995.5 19.0 SW 25.1 0.8 2.0
07:39 10.7 9.6 93 995.4 15.9 SW 25.1 0.8 2.1
07:40 10.7 9.6 93 995.5 18.3 S 25.1 1.5 2.1
07:41 10.6 9.5 93 995.5 14.5 S 25.1 2.3 2.2
07:42 10.6 9.5 93 995.5 19.7 S 25.1 3.0 2.3
07:43 10.6 9.5 93 995.6 19.7 S 19.7 3.0 2.3
07:44 10.6 9.5 93 995.4 24.4 SW 24.4 3.0 2.3
07:45 10.6 9.5 93 995.5 17.4 WSW 24.4 3.0 2.4
07:46 10.6 9.5 93 995.5 19.7 SW 24.4 2.3 2.4
07:47 10.6 9.5 93 995.6 19.0 S 24.4 1.5 2.4
07:48 10.6 9.5 93 995.6 17.4 S 24.4 1.5 2.4
07:49 10.5 9.4 93 995.8 18.3 S 24.4 1.5 2.5
07:50 10.5 9.4 93 995.5 18.3 SSW 24.4 0.8 2.5
07:51 10.5 9.4 93 995.8 15.9 W 24.4 1.5 2.6
07:52 10.5 9.4 93 995.5 21.3 SW 24.4 2.3 2.6
07:53 10.5 9.4 93 995.6 15.2 W 24.4 3.8 2.7
07:54 10.5 9.4 93 995.6 17.4 S 24.4 3.0 2.7
07:55 10.5 9.4 93 995.6 19.7 WSW 21.3 3.8 2.8
07:56 10.5 9.4 93 995.6 17.4 SW 21.3 3.0 2.8
07:57 10.5 9.4 93 995.5 16.8 SW 21.3 2.3 2.8
07:58 10.5 9.4 93 995.3 15.2 SW 21.3 0.8 2.8
07:59 10.5 9.4 93 995.3 16.8 SW 21.3 0.8 2.8
08:00 10.5 9.4 93 995.5 13.0 NNW 21.3 0.8 2.8
08:01 10.5 9.4 93 995.4 21.3 SW 21.3 0.8 2.8
08:02 10.5 9.4 93 995.5 20.6 SW 21.3 0.8 2.8
08:03 10.5 9.4 93 995.4 16.8 SW 21.3 0.8 2.8
08:04 10.5 9.4 93 995.5 21.3 SSW 21.3 0.8 2.8
08:05 10.5 9.4 93 995.3 21.3 W 21.3 0.0 2.8
08:06 10.5 9.4 93 995.4 17.4 S 21.3 0.8 2.9
08:07 10.5 9.4 93 995.3 17.4 SW 21.3 1.5 3.0
08:08 10.5 9.4 93 995.2 14.5 SW 21.3 1.5 3.0
08:09 10.5 9.4 93 995.3 22.8 SW 22.8 3.0 3.1
08:10 10.5 9.4 93 995.3 17.4 SW 22.8 3.8 3.1
08:11 10.5 9.4 93 995.4 24.4 SW 24.4 3.0 3.1
08:12 10.5 9.4 93 995.3 19.7 W 24.4 3.0 3.2
08:13 10.5 9.4 93 995.3 16.8 NW 24.4 3.8 3.3
08:14 10.5 9.4 93 995.2 16.8 SW 24.4 3.0 3.3
08:15 10.5 9.4 93 995.3 15.9 WSW 24.4 2.3 3.3
08:16 10.5 9.4 93 995.3 13.6 SW 24.4 2.3 3.3
08:17 10.5 9.4 93 995.4 13.0 WSW 24.4 2.3 3.4
08:18 10.5 9.4 93 995.5 14.5 SW 24.4 2.3 3.5
08:19 10.5 9.4 93 995.4 22.1 SW 24.4 2.3 3.5
08:20 10.5 9.4 93 995.4 19.7 SW 24.4 2.3 3.6
08:21 10.5 9.4 93 995.2 15.9 SW 24.4 3.0 3.6
08:22 10.5 9.4 93 995.2 14.5 SSW 22.1 2.3 3.6
08:23 10.5 9.4 93 995.0 15.9 SW 22.1 1.5 3.6
08:24 10.5 9.4 93 995.2 14.5 S 22.1 0.8 3.6
08:25 10.5 9.4 93 995.0 19.0 SW 22.1 0.8 3.6
08:26 10.5 9.4 93 995.3 22.1 SW 22.1 0.0 3.6
08:27 10.5 9.4 93 995.3 22.1 S 22.1 0.8 3.7
08:29 10.5 9.4 93 995.3 23.5 SW 23.5 2.3 3.8
08:30 10.5 9.4 93 994.9 19.0 SW 23.5 3.0 3.8
08:31 10.5 9.4 93 995.1 20.6 SW 23.5 3.8 4.0
08:32 10.5 9.4 93 995.2 25.1 W 25.1 3.8 4.0
08:33 10.5 9.4 93 995.0 16.8 SW 25.1 4.5 4.0
08:34 10.5 9.4 93 995.1 16.8 SW 25.1 3.0 4.0
08:35 10.5 9.4 93 995.1 22.1 SW 25.1 3.0 4.1
08:36 10.5 9.4 93 994.8 22.1 SW 25.1 2.3 4.1
08:37 10.5 9.4 93 995.0 15.2 SW 25.1 1.5 4.1
08:38 10.5 9.4 93 995.2 13.0 NW 25.1 0.8 4.1
08:39 10.5 9.4 93 995.1 16.8 S 25.1 0.8 4.1
08:40 10.5 9.4 93 995.1 17.4 SW 25.1 0.0 4.1
08:41 10.5 9.4 93 995.2 17.4 SW 25.1 0.0 4.1
08:43 10.6 9.5 93 995.1 15.9 W 22.1 0.0 4.3
08:44 10.6 9.5 93 994.8 14.5 SW 22.1 3.0 4.3
08:45 10.6 9.5 93 995.1 14.5 WSW 22.1 3.0 4.3
08:46 10.6 9.5 93 995.1 11.4 SW 19.7 3.0 4.3
08:47 10.6 9.5 93 995.1 15.2 WSW 19.7 3.0 4.3
08:48 10.6 9.5 93 994.9 14.5 SW 19.7 3.0 4.3
08:49 10.6 9.5 93 995.1 11.4 WSW 19.7 0.0 4.3
08:50 10.6 9.5 93 994.9 9.8 SW 19.7 0.0 4.3
08:51 10.6 9.5 93 995.0 13.0 SW 17.4 0.0 4.3
08:52 10.6 9.5 93 995.0 9.8 S 15.9 0.0 4.3
08:53 10.6 9.5 93 995.1 15.9 SW 16.8 0.0 4.3
08:54 10.6 9.5 93 994.9 13.6 SW 16.8 0.0 4.3
08:55 10.7 9.6 93 995.1 13.6 SW 16.8 0.0 4.3
08:57 10.7 9.6 93 995.0 13.6 SW 22.8 0.0 4.3
08:58 10.7 9.6 93 995.1 20.6 W 22.8 0.0 4.3
08:59 10.8 9.7 93 995.1 18.3 SW 22.8 0.0 4.3
09:00 10.8 9.7 93 995.2 18.3 SW 22.8 0.0 4.3
09:01 10.8 9.7 93 995.0 18.3 SW 22.8 0.0 4.3
09:02 10.8 9.7 93 995.0 18.3 SW 22.8 0.0 4.3
09:03 10.8 9.7 93 995.0 18.3 SW 22.8 0.0 4.3
09:04 10.8 9.7 93 995.0 18.3 SW 22.8 0.0 4.3
09:05 10.8 9.7 93 995.4 18.3 SW 22.8 0.0 4.3
09:06 10.8 9.7 93 995.0 18.3 SW 22.8 0.0 4.3
09:07 11.0 10.1 94 995.1 15.9 SW 20.6 0.0 4.3
09:08 11.1 10.2 94 995.2 19.0 S 20.6 0.0 4.3
09:09 11.1 10.2 94 995.1 23.5 SW 23.5 0.0 4.3
09:11 11.0 10.1 94 995.1 15.2 SW 23.5 0.0 4.3
09:12 11.0 10.1 94 995.0 14.5 NW 23.5 0.0 4.3
09:13 11.0 10.1 94 995.0 17.4 SW 23.5 0.0 4.3
09:14 11.0 10.1 94 995.0 15.2 SW 23.5 0.0 4.3
09:15 11.0 10.1 94 995.1 14.5 SW 23.5 0.0 4.3
09:16 11.0 10.1 94 995.2 15.9 SE 23.5 0.0 4.3
09:17 11.0 10.1 94 995.2 13.0 W 23.5 0.0 4.3
09:18 11.0 10.1 94 995.1 15.9 SW 23.5 0.0 4.3
09:19 11.0 10.1 94 995.1 16.8 SW 23.5 0.0 4.3
09:20 11.0 10.1 94 995.1 13.6 W 22.8 0.0 4.3
09:21 11.0 10.1 94 995.2 22.1 SW 22.8 0.0 4.3
09:22 10.9 10.0 94 995.3 16.8 SSW 22.1 0.0 4.3
09:23 10.9 10.0 94 995.2 18.3 SW 22.1 0.0 4.3
09:24 10.8 9.9 94 995.0 15.2 W 22.1 0.0 4.3
09:25 10.8 9.9 94 995.2 19.0 WSW 22.1 0.0 4.3
09:26 10.8 9.9 94 995.1 13.6 W 22.1 0.0 4.3
09:27 10.7 9.8 94 995.0 14.5 SW 22.1 0.0 4.3
09:28 10.7 9.6 93 995.1 17.4 SW 22.1 0.0 4.3
09:29 10.7 9.6 93 994.9 19.7 SW 22.1 0.8 4.4
09:30 10.7 9.6 93 995.1 19.7 W 22.1 0.8 4.4
09:31 10.7 9.6 93 995.0 19.7 SW 22.1 0.8 4.4
09:32 10.7 9.6 93 994.9 18.3 W 20.6 0.8 4.4
09:33 10.8 9.9 94 995.1 15.9 S 20.6 0.8 4.4
09:34 10.8 9.9 94 995.0 15.9 SW 19.7 0.0 4.4
09:35 10.9 10.0 94 994.9 15.2 W 19.7 0.0 4.4
09:36 10.9 10.0 94 995.1 15.2 SW 19.7 0.0 4.4
09:37 11.0 10.1 94 995.0 15.2 SW 19.7 0.0 4.4
09:38 11.1 10.2 94 994.9 15.2 NW 19.7 0.0 4.4
09:39 11.1 10.2 94 994.9 17.4 W 19.7 0.0 4.4
09:40 11.1 10.2 94 994.9 16.8 SW 19.7 0.0 4.4
09:41 11.2 10.3 94 995.0 16.8 S 18.3 0.0 4.4
09:42 11.2 10.3 94 995.1 19.0 NNW 19.0 0.0 4.4
09:43 11.2 10.3 94 994.8 19.0 W 19.0 0.0 4.4
09:44 11.2 10.3 94 994.9 21.3 W 21.3 0.0 4.4
09:45 11.2 10.3 94 995.1 21.3 SW 21.3 0.0 4.4
09:46 11.2 10.3 94 995.0 21.3 SW 21.3 0.0 4.4
09:47 11.3 10.4 94 994.8 19.0 SW 21.3 0.0 4.4
09:48 11.3 10.4 94 994.8 17.4 W 21.3 0.0 4.4
09:49 11.3 10.4 94 995.0 13.6 W 21.3 0.0 4.4
09:50 11.3 10.4 94 994.8 16.8 SW 21.3 0.0 4.4
09:51 11.3 10.4 94 994.8 22.1 S 22.1 0.0 4.4
09:52 11.3 10.4 94 994.9 22.8 SW 22.8 0.0 4.4
09:53 11.3 10.4 94 994.9 15.9 W 22.8 0.0 4.4
09:54 11.4 10.5 94 995.0 19.7 SW 22.8 0.0 4.4
09:55 11.3 10.4 94 994.8 27.3 S 27.3 0.0 4.4
09:56 11.3 10.4 94 995.0 23.5 SW 27.3 0.0 4.4
09:57 11.3 10.4 94 995.1 18.3 SW 27.3 0.0 4.4
09:58 11.3 10.4 94 995.0 20.6 W 27.3 0.0 4.4
09:59 11.2 10.3 94 995.1 15.2 WNW 27.3 0.0 4.4
10:00 11.2 10.3 94 995.1 15.2 WNW 27.3 0.0 4.4
10:01 11.2 10.3 94 995.0 20.6 W 27.3 0.0 4.4
10:02 11.2 10.3 94 994.9 15.9 SW 27.3 0.0 4.4
10:03 11.2 10.3 94 995.0 19.7 W 27.3 0.0 4.4
10:04 11.3 10.4 94 994.9 15.9 S 27.3 0.0 4.4
10:05 11.4 10.5 94 995.0 19.0 SW 27.3 0.0 4.4
10:06 11.4 10.5 94 994.9 19.0 SW 23.5 0.0 4.4
10:07 11.5 10.6 94 994.9 20.6 SW 20.6 0.0 4.4
10:08 11.5 10.6 94 995.1 22.8 SW 22.8 0.0 4.4
10:09 11.5 10.6 94 995.0 22.8 SW 22.8 0.0 4.4
10:10 11.5 10.6 94 994.9 19.7 SW 22.8 0.0 4.4
10:11 11.6 10.7 94 995.0 20.6 W 22.8 0.0 4.4
10:12 11.6 10.7 94 994.9 20.6 SW 22.8 0.0 4.4
10:13 11.7 10.8 94 995.0 19.7 W 22.8 0.0 4.4
10:14 11.7 10.8 94 994.9 22.8 SW 22.8 0.0 4.4
10:15 11.7 10.8 94 994.7 22.8 SW 22.8 0.0 4.4
10:16 11.7 10.8 94 994.7 19.0 SW 22.8 0.0 4.4
10:17 11.7 10.8 94 995.0 22.8 NW 22.8 0.0 4.4
10:18 11.7 10.8 94 994.9 19.7 SW 22.8 0.0 4.4
10:19 11.6 10.7 94 994.9 18.3 SW 22.8 0.0 4.4
10:20 11.6 10.7 94 994.8 17.4 W 22.8 0.0 4.4
10:22 11.5 10.6 94 995.0 17.4 SW 22.8 0.0 4.4
10:23 11.5 10.4 93 994.9 22.8 S 22.8 0.0 4.4
10:24 11.5 10.4 93 994.9 26.6 SW 26.6 0.0 4.4
10:25 11.5 10.4 93 994.9 26.6 W 26.6 0.0 4.4
10:26 11.4 10.3 93 994.8 19.0 W 26.6 0.0 4.4
10:27 11.5 10.4 93 994.9 14.5 SW 26.6 0.0 4.4
10:28 11.5 10.4 93 995.0 15.2 SW 26.6 0.0 4.4
10:29 11.5 10.4 93 994.7 19.0 WSW 26.6 0.0 4.4
10:30 11.5 10.4 93 994.9 15.2 NW 26.6 0.0 4.4
10:31 11.5 10.4 93 994.9 15.2 W 26.6 0.0 4.4
10:32 11.5 10.4 93 994.9 13.0 W 26.6 0.0 4.4
10:33 11.5 10.4 93 994.9 15.2 SW 26.6 0.0 4.4
10:34 11.5 10.4 93 994.8 15.9 W 26.6 0.0 4.4
10:35 11.5 10.4 93 995.0 14.5 SW 26.6 0.0 4.4
10:36 11.6 10.5 93 994.7 13.6 SW 19.0 0.0 4.4
10:37 11.6 10.5 93 994.8 14.5 SW 19.0 0.0 4.4
10:38 11.6 10.5 93 994.8 13.6 SW 19.0 0.0 4.4
10:39 11.6 10.5 93 994.9 19.7 SW 19.7 0.0 4.4
10:40 11.6 10.5 93 994.8 15.9 W 19.7 0.0 4.4
10:41 11.6 10.5 93 994.7 17.4 W 19.7 0.0 4.4
10:42 11.6 10.5 93 995.0 18.3 SW 19.7 0.0 4.4
10:43 11.5 10.4 93 994.9 22.8 SW 22.8 0.0 4.4
10:44 11.5 10.4 93 994.9 22.8 SW 22.8 0.0 4.4
10:45 11.5 10.4 93 994.8 13.6 SW 22.8 0.0 4.4
10:46 11.5 10.4 93 994.7 16.8 SW 22.8 0.0 4.4
10:47 11.5 10.4 93 994.8 18.3 SW 22.8 0.0 4.4
10:48 11.5 10.4 93 994.9 17.4 S 22.8 0.0 4.4
10:49 11.6 10.5 93 995.0 19.0 SW 22.8 0.0 4.4
10:50 11.6 10.5 93 994.8 22.1 SW 22.8 0.0 4.4
10:51 11.7 10.6 93 994.9 22.1 S 22.8 0.0 4.4
10:52 11.7 10.6 93 994.9 22.1 SW 22.8 0.0 4.4
10:53 11.7 10.6 93 994.7 22.1 SW 22.8 0.0 4.4
10:54 11.7 10.6 93 994.9 21.3 SW 22.1 0.0 4.4
10:55 11.7 10.6 93 994.9 19.7 SSW 22.1 0.0 4.4
10:56 11.7 10.6 93 994.7 21.3 NW 22.1 0.0 4.4
10:57 11.7 10.6 93 994.6 21.3 NW 22.1 0.0 4.4
10:58 11.6 10.5 93 994.7 18.3 SW 22.1 0.0 4.4
10:59 11.6 10.5 93 994.8 19.7 SW 22.1 0.0 4.4
11:00 11.5 10.4 93 994.7 19.0 W 22.1 0.0 4.4
11:01 11.5 10.4 93 994.7 19.0 W 22.1 0.0 4.4
11:02 11.5 10.4 93 994.8 19.0 W 22.1 0.0 4.4
11:03 11.5 10.4 93 994.6 19.0 W 22.1 0.0 4.4
11:04 11.5 10.4 93 994.8 19.0 W 21.3 0.0 4.4
11:05 11.5 10.4 93 994.8 19.0 W 21.3 0.0 4.4
11:06 11.5 10.4 93 994.7 19.0 W 21.3 0.0 4.4
11:07 11.4 10.1 92 994.8 13.6 SW 19.7 0.0 4.4
11:08 11.4 10.1 92 995.1 20.6 W 20.6 0.0 4.5
11:09 11.4 10.1 92 994.9 22.1 SW 22.1 0.8 4.5
11:10 11.4 10.1 92 994.7 22.8 W 22.8 0.8 4.5
11:11 11.3 10.1 92 994.7 18.3 WSW 22.8 0.8 4.5
11:12 11.3 10.1 92 994.7 21.3 W 22.8 0.8 4.5
11:13 11.3 10.1 92 994.7 16.8 SW 22.8 0.8 4.5
11:14 11.3 10.1 92 994.9 19.7 S 22.8 0.0 4.5
11:15 11.3 10.1 92 994.7 16.8 SW 22.8 0.0 4.5
11:16 11.3 10.1 92 994.7 16.8 NW 22.8 0.0 4.5
11:17 11.3 10.1 92 994.7 17.4 SW 22.8 0.0 4.5
11:18 11.3 10.1 92 994.5 18.3 S 22.8 0.0 4.5
11:19 11.3 10.1 92 994.8 18.3 S 22.8 0.0 4.5
11:20 11.3 10.1 92 994.8 23.5 SW 23.5 0.0 4.5
11:21 11.3 10.1 92 994.7 17.4 SW 23.5 0.8 4.5
11:22 11.3 10.1 92 994.7 20.6 W 23.5 0.8 4.5
11:23 11.2 10.0 92 994.7 28.2 SW 28.2 0.8 4.5
11:24 11.2 10.0 92 994.8 19.0 W 28.2 0.8 4.5
11:25 11.2 10.0 92 995.1 25.1 SW 28.2 0.8 4.5
11:26 11.2 10.0 92 994.6 21.3 SW 28.2 0.0 4.5
11:27 11.1 9.9 92 994.5 20.6 W 28.2 0.0 4.6
11:28 11.1 9.9 92 994.5 16.8 W 28.2 0.8 4.6
11:29 11.1 9.9 92 994.6 12.1 W 28.2 0.8 4.6
11:30 11.2 10.0 92 994.7 14.5 SW 28.2 0.8 4.6
11:31 11.2 10.0 92 994.8 15.2 SW 28.2 1.5 4.7
11:32 11.2 10.0 92 994.6 18.3 SW 28.2 2.3 4.7
11:33 11.1 9.9 92 994.6 22.1 S 28.2 1.5 4.7
11:34 11.1 9.9 92 994.5 19.7 SW 25.1 1.5 4.7
11:35 11.1 9.9 92 994.7 15.9 W 25.1 1.5 4.7
11:36 11.1 9.9 92 994.7 20.6 SW 22.1 0.8 4.7
11:37 11.1 9.9 92 994.6 17.4 W 22.1 0.0 4.7
11:38 11.2 10.0 92 994.8 25.1 W 25.1 0.0 4.7
11:39 11.3 10.1 92 994.7 18.3 SW 25.1 0.0 4.7
11:40 11.3 10.1 92 994.5 18.3 SW 25.1 0.0 4.7
11:41 11.5 10.4 93 994.6 19.7 SW 25.1 0.0 4.7
11:42 11.5 10.4 93 994.5 21.3 W 25.1 0.0 4.7
11:43 11.6 10.5 93 994.7 20.6 W 25.1 0.0 4.7
11:44 11.6 10.5 93 994.9 23.5 SW 25.1 0.0 4.8
11:45 11.6 10.5 93 994.6 19.0 W 25.1 0.8 4.8
11:46 11.6 10.5 93 994.7 22.8 SW 25.1 0.8 4.8
11:47 11.6 10.5 93 994.6 22.8 NW 25.1 0.8 4.8
11:48 11.6 10.5 93 994.5 23.5 NW 25.1 0.8 4.8
11:49 11.6 10.5 93 994.6 21.3 W 24.4 0.8 4.8
11:50 11.6 10.5 93 994.7 19.0 W 24.4 0.0 4.8
11:51 11.6 10.5 93 994.6 21.3 W 23.5 0.0 4.8
11:52 11.6 10.5 93 994.6 20.6 W 23.5 0.0 4.8
11:53 11.6 10.5 93 994.6 22.1 W 23.5 0.0 4.8
11:54 11.6 10.5 93 994.7 15.9 SW 23.5 0.0 4.8
11:55 11.5 10.4 93 994.6 22.1 SW 23.5 0.0 4.8
11:56 11.6 10.5 93 994.6 19.7 SW 23.5 0.0 4.8
11:57 11.6 10.5 93 994.6 21.3 SW 23.5 0.0 4.8
11:58 11.6 10.5 93 994.7 21.3 W 23.5 0.0 4.8
11:59 11.6 10.5 93 994.7 18.3 SW 22.1 0.0 4.8
12:00 11.5 10.4 93 994.6 25.9 W 25.9 0.0 4.8
12:01 11.5 10.4 93 994.7 25.9 SW 25.9 0.0 4.8
12:02 11.5 10.4 93 994.8 20.6 NW 25.9 0.0 4.8
12:03 11.5 10.4 93 994.8 19.7 W 25.9 0.0 4.8
12:04 11.5 10.4 93 994.7 20.6 W 25.9 0.0 4.8
12:05 11.5 10.4 93 994.6 18.3 SW 25.9 0.8 4.9
12:06 11.5 10.4 93 994.5 22.1 W 25.9 0.8 4.9
12:07 11.5 10.4 93 994.7 22.1 W 25.9 0.8 4.9
12:08 11.5 10.4 93 994.7 22.1 W 25.9 0.8 4.9
12:09 11.5 10.4 93 994.6 22.1 W 25.9 0.8 4.9
12:10 11.5 10.4 93 994.7 25.1 SW 25.9 0.0 4.9
12:11 11.5 10.4 93 994.6 17.4 W 25.9 0.0 4.9
12:12 11.5 10.4 93 994.6 21.3 W 25.1 0.0 4.9
12:13 11.5 10.4 93 994.9 21.3 W 25.1 0.0 4.9
12:14 11.5 10.4 93 994.7 16.8 SW 25.1 0.0 4.9
12:15 11.5 10.4 93 994.7 20.6 W 25.1 0.0 4.9
12:16 11.5 10.4 93 994.7 20.6 W 25.1 0.0 4.9
12:17 11.5 10.4 93 994.8 21.3 SW 25.1 0.0 4.9
12:18 11.5 10.4 93 994.7 22.1 SW 25.1 0.0 4.9
12:19 11.5 10.4 93 995.0 22.1 SW 25.1 0.0 4.9
12:20 11.5 10.4 93 994.7 20.6 W 25.1 0.0 4.9
12:21 11.5 10.4 93 994.7 21.3 W 22.1 0.0 4.9
12:22 11.6 10.5 93 994.5 20.6 SW 22.1 0.0 4.9
12:24 11.7 10.6 93 994.6 22.1 SW 22.1 0.0 4.9
12:25 11.7 10.6 93 994.9 21.3 SW 22.1 0.0 4.9
12:26 11.8 10.7 93 994.7 19.7 W 22.1 0.0 4.9
12:27 11.8 10.7 93 994.8 17.4 SSW 22.1 0.0 4.9
12:28 11.8 10.7 93 994.7 17.4 SW 22.1 0.0 4.9
12:29 11.9 10.8 93 994.6 18.3 SW 22.1 0.0 4.9
12:30 11.9 10.8 93 994.8 19.0 W 22.1 0.0 4.9
12:31 11.9 10.8 93 995.0 19.0 W 22.1 0.0 4.9
12:32 11.9 10.8 93 994.7 19.0 W 22.1 0.0 4.9
12:33 11.9 10.8 93 994.8 22.8 SW 23.5 0.0 4.9
12:34 11.9 10.8 93 994.7 18.3 W 23.5 0.0 4.9
12:35 11.9 10.8 93 994.7 20.6 W 23.5 0.0 4.9
12:36 11.9 10.8 93 994.7 21.3 W 23.5 0.0 4.9
12:37 12.0 10.9 93 994.8 27.3 SW 27.3 0.0 4.9
12:38 12.0 10.9 93 994.7 22.8 SW 27.3 0.0 4.9
12:39 12.0 10.9 93 995.0 21.3 W 27.3 0.0 4.9
12:40 12.0 10.9 93 994.7 17.4 W 27.3 0.0 4.9
12:41 12.0 10.9 93 995.0 24.4 W 27.3 0.0 4.9
12:42 12.0 10.9 93 994.7 18.3 SW 27.3 0.0 4.9
12:43 12.0 10.9 93 994.9 15.2 WSW 27.3 0.0 4.9
12:44 12.0 10.9 93 995.0 14.5 W 27.3 0.0 4.9
12:45 12.0 10.9 93 995.0 19.0 SW 27.3 0.0 4.9
12:46 12.0 10.9 93 994.9 20.6 SW 27.3 0.0 4.9
12:47 12.0 10.9 93 994.9 25.1 W 25.1 0.0 4.9
12:48 12.0 10.9 93 994.9 25.1 W 25.1 0.0 4.9
12:49 12.1 11.0 93 994.9 22.8 SW 25.1 0.0 4.9
12:50 12.2 11.1 93 995.0 19.0 W 25.1 0.0 4.9
12:51 12.2 11.1 93 994.8 22.8 W 25.1 0.0 4.9
12:52 12.3 11.2 93 995.0 20.6 SW 25.1 0.0 4.9
12:53 12.5 10.9 90 995.0 19.7 W 25.1 0.0 4.9
12:54 12.5 10.9 90 994.9 16.8 NW 25.1 0.0 4.9
12:55 12.6 11.0 90 994.9 28.9 SW 28.9 0.0 4.9
12:56 12.7 11.1 90 995.0 22.1 W 28.9 0.0 4.9
12:57 12.6 11.0 90 994.7 24.4 W 28.9 0.0 4.9
12:58 12.6 11.0 90 994.7 17.4 SW 28.9 0.0 4.9
12:59 12.6 11.0 90 995.0 21.3 SW 28.9 0.0 4.9
13:00 12.6 11.0 90 995.1 21.3 SW 28.9 0.0 4.9
13:01 12.6 11.0 90 995.3 21.3 SW 28.9 0.0 4.9
13:02 12.6 11.0 90 995.1 21.3 SW 28.9 0.0 4.9
13:03 12.6 11.0 90 995.0 21.3 SW 28.9 0.0 4.9
13:04 12.6 11.0 90 995.1 21.3 SW 28.9 0.0 4.9
13:05 12.6 11.0 90 995.2 21.3 SW 24.4 0.0 4.9
13:06 12.6 11.0 90 995.1 21.3 SW 24.4 0.0 4.9
13:07 12.6 11.0 90 995.1 21.3 SW 24.4 0.0 4.9
13:08 12.1 10.8 92 995.3 24.4 NW 24.4 0.0 4.9
13:09 12.1 10.8 92 995.2 23.5 WSW 24.4 0.0 4.9
13:10 12.2 10.9 92 995.1 19.0 W 24.4 0.0 4.9
13:11 12.2 10.9 92 995.2 23.5 W 24.4 0.0 4.9
13:12 12.3 11.0 92 995.1 23.5 WNW 24.4 0.0 4.9
13:13 12.4 11.1 92 995.0 22.1 W 24.4 0.0 4.9
13:14 12.4 11.1 92 995.2 23.5 W 24.4 0.0 4.9
13:15 12.5 10.9 90 995.1 19.0 NW 24.4 0.0 4.9
13:16 12.5 10.9 90 995.2 18.3 NW 24.4 0.0 4.9
13:17 12.6 10.8 89 995.2 18.3 W 24.4 0.0 4.9
13:18 12.6 10.8 89 995.1 19.7 W 24.4 0.0 4.9
13:19 12.5 10.7 89 995.4 19.7 SW 23.5 0.0 4.9
13:20 12.5 10.7 89 995.2 14.5 NW 23.5 0.0 4.9
13:21 12.5 10.7 89 995.2 20.6 WNW 23.5 0.0 4.9
13:22 12.5 10.7 89 995.2 17.4 NW 23.5 0.0 4.9
13:23 12.4 11.1 92 995.4 13.6 SW 23.5 0.0 4.9
13:24 12.4 11.0 91 995.0 18.3 W 20.6 0.0 4.9
13:25 12.4 11.0 91 995.3 21.3 NW 21.3 0.0 4.9
13:26 12.4 11.0 91 995.3 13.6 W 21.3 0.0 4.9
13:27 12.4 11.0 91 995.5 15.2 W 21.3 0.0 4.9
13:28 12.4 11.0 91 995.5 15.2 SW 21.3 0.0 4.9
13:29 12.4 11.0 91 995.3 16.8 W 21.3 0.0 4.9
13:30 12.4 11.0 91 995.3 15.9 W 21.3 0.0 4.9
13:31 12.3 10.9 91 995.4 18.3 NW 21.3 0.0 4.9
13:32 12.3 10.9 91 995.6 18.3 NW 21.3 0.0 4.9
13:33 12.3 10.7 90 995.3 15.9 W 21.3 0.0 4.9
13:34 12.3 10.7 90 995.5 18.3 W 21.3 0.0 4.9
13:35 12.3 10.7 90 995.5 19.0 W 21.3 0.0 4.9
13:36 12.3 10.7 90 995.6 20.6 W 20.6 0.0 4.9
13:37 12.3 10.7 90 995.5 17.4 WNW 20.6 0.0 4.9
13:38 12.3 10.7 90 995.5 15.9 W 20.6 0.0 4.9
13:39 12.2 10.4 89 995.6 16.8 W 20.6 0.0 4.9
13:40 12.2 10.4 89 995.6 18.3 SW 20.6 0.0 4.9
13:41 12.2 10.4 89 995.4 18.3 WNW 20.6 0.0 4.9
13:42 12.2 10.4 89 995.6 21.3 NW 21.3 0.0 4.9
13:43 12.3 10.5 89 995.6 23.5 SW 23.5 0.0 4.9
13:44 12.3 10.5 89 995.8 18.3 NW 23.5 0.0 4.9
13:45 12.3 10.5 89 995.7 20.6 NW 23.5 0.0 4.9
13:46 12.3 10.5 89 995.8 20.6 NW 23.5 0.0 4.9
13:47 12.4 10.6 89 995.5 19.0 W 23.5 0.0 4.9
13:48 12.4 10.6 89 995.6 15.9 NW 23.5 0.0 4.9
13:49 12.4 10.6 89 995.9 15.9 W 23.5 0.0 4.9
13:50 12.4 10.6 89 995.9 17.4 W 23.5 0.0 4.9
13:51 12.4 10.6 89 995.7 17.4 W 23.5 0.0 4.9
13:52 12.3 10.5 89 995.8 22.8 W 23.5 0.8 4.9
13:53 12.3 10.5 89 995.8 19.7 NW 23.5 0.8 4.9
13:54 12.2 10.3 88 995.9 17.4 N 22.8 0.8 4.9
13:55 12.1 10.2 88 996.0 15.2 W 22.8 1.5 5.0
13:56 12.1 10.2 88 995.8 12.1 W 22.8 1.5 5.0
13:57 12.1 10.2 88 995.7 13.0 W 22.8 0.8 5.0
13:58 12.1 10.2 88 995.9 17.4 W 22.8 0.8 5.0
13:59 12.1 10.2 88 995.8 14.5 NW 22.8 0.8 5.0
14:00 12.1 10.2 88 995.9 14.5 N 22.8 0.0 5.0
14:01 12.1 10.2 88 995.8 23.5 SW 23.5 0.0 5.0
14:02 12.1 10.2 88 995.8 23.5 W 23.5 0.0 5.0
14:03 12.1 10.2 88 995.9 19.0 NW 23.5 0.0 5.0
14:04 12.1 10.3 89 996.0 17.4 NW 23.5 0.0 5.0
14:05 12.1 10.3 89 995.9 22.1 N 23.5 0.0 5.0
14:06 12.1 10.3 89 996.0 18.3 W 23.5 0.0 5.0
14:07 12.2 10.4 89 995.9 14.5 W 23.5 0.0 5.0
14:08 12.2 10.4 89 996.1 14.5 W 23.5 0.0 5.0
14:09 12.4 10.6 89 995.9 17.4 W 23.5 0.0 5.0
14:10 12.4 10.6 89 996.0 10.7 W 23.5 0.0 5.0
14:11 12.5 10.2 86 996.0 18.3 W 23.5 0.0 5.0
14:12 12.6 10.3 86 996.0 18.3 SW 22.1 0.0 5.0
14:13 12.6 10.3 86 996.2 18.3 SW 22.1 0.0 5.0
14:14 12.6 10.3 86 996.1 18.3 SW 22.1 0.0 5.0
14:15 12.5 10.2 86 996.2 21.3 WNW 21.3 0.0 5.0
14:16 12.5 10.2 86 996.0 13.0 W 21.3 0.0 5.0
14:17 12.5 10.2 86 996.1 24.4 SW 24.4 0.0 5.0
14:18 12.4 10.6 89 996.0 24.4 NW 24.4 0.0 5.0
14:19 12.4 10.6 89 996.1 19.7 W 24.4 0.0 5.0
14:20 12.3 10.5 89 996.1 22.1 NW 24.4 0.0 5.0
14:21 12.3 10.5 89 996.3 20.6 NW 24.4 0.0 5.0
14:22 12.3 10.5 89 996.0 22.1 NW 24.4 0.0 5.0
14:23 12.3 10.5 89 996.0 22.1 NW 24.4 0.0 5.0
14:24 12.4 10.6 89 996.3 22.8 W 24.4 0.0 5.0
14:25 12.4 10.6 89 996.2 17.4 NW 24.4 0.0 5.0
14:26 12.4 10.6 89 996.2 17.4 NW 24.4 0.0 5.0
14:27 12.5 10.1 85 996.4 13.0 W 24.4 0.0 5.0
14:28 12.5 10.1 85 996.3 13.0 W 22.8 0.0 5.0
14:29 12.6 10.1 85 996.5 19.0 NW 22.8 0.0 5.0
14:30 12.6 10.1 85 996.0 21.3 N 22.8 0.0 5.0
14:31 12.6 10.1 85 996.3 18.3 W 22.8 0.0 5.0
14:32 12.6 10.0 84 996.2 19.7 NW 22.8 0.0 5.0
14:33 12.5 9.9 84 996.4 21.3 W 22.8 0.0 5.0
14:34 12.5 9.9 84 996.4 22.1 NW 22.1 0.0 5.0
14:35 12.5 9.9 84 996.4 20.6 NW 22.1 0.0 5.0
14:36 12.6 10.0 84 996.3 22.8 W 22.8 0.0 5.0
14:37 12.7 10.1 84 996.5 18.3 SW 22.8 0.0 5.0
14:38 12.8 10.2 84 996.4 15.9 W 22.8 0.0 5.0
14:39 12.9 10.3 84 996.2 14.5 NW 22.8 0.0 5.0
14:40 13.0 10.4 84 996.4 15.2 SW 22.8 0.0 5.0
14:41 13.1 10.5 84 996.5 18.3 W 22.8 0.0 5.0
14:42 13.1 10.5 84 996.3 19.0 W 22.8 0.0 5.0
14:43 13.1 10.5 84 996.5 13.0 W 22.8 0.0 5.0
14:44 13.1 10.5 84 996.4 15.9 W 22.8 0.0 5.0
14:45 13.2 10.6 84 996.3 24.4 W 24.4 0.0 5.0
14:46 13.2 10.4 83 996.5 23.5 SW 24.4 0.0 5.0
14:47 13.3 10.5 83 996.4 23.5 W 24.4 0.0 5.0
14:48 13.4 10.6 83 996.5 22.1 W 24.4 0.0 5.0
14:49 13.5 10.7 83 996.5 22.1 S 24.4 0.0 5.0
14:50 13.5 10.7 83 996.6 22.1 SW 24.4 0.0 5.0
14:51 13.6 10.8 83 996.7 19.7 W 24.4 0.0 5.0
14:52 13.5 10.7 83 996.4 19.7 NW 24.4 0.0 5.0
14:53 13.5 10.7 83 996.7 19.7 W 24.4 0.0 5.0
14:54 13.5 10.5 82 996.4 17.4 SW 24.4 0.0 5.0
14:55 13.4 10.4 82 996.6 17.4 W 24.4 0.0 5.0
14:56 13.4 10.4 82 996.8 17.4 W 23.5 0.0 5.0
14:57 13.3 10.1 81 996.6 18.3 W 23.5 0.0 5.0
14:58 13.3 10.1 81 996.7 22.1 W 22.8 0.0 5.0
14:59 13.3 10.1 81 996.7 22.1 SW 22.8 0.0 5.0
15:00 13.3 10.1 81 996.7 15.9 W 22.8 0.0 5.0
15:01 13.3 10.1 81 996.8 15.9 W 22.8 0.0 5.0
15:02 13.3 10.1 81 996.7 15.9 W 22.8 0.0 5.0
15:03 13.3 10.1 81 996.6 15.9 W 22.8 0.0 5.0
15:04 13.3 10.1 81 996.8 15.9 W 22.8 0.0 5.0
15:05 13.3 10.1 81 996.9 15.9 W 22.8 0.0 5.0
15:06 13.3 10.1 81 996.9 15.9 W 22.8 0.0 5.0
15:07 13.2 10.0 81 996.8 21.3 W 22.1 0.0 5.0
15:08 13.2 10.0 81 996.9 21.3 W 22.1 0.0 5.0
15:09 13.1 9.7 80 996.9 18.3 W 22.1 0.0 5.0
15:10 13.0 9.6 80 997.1 20.6 W 21.3 0.0 5.0
15:11 13.0 9.6 80 997.0 20.6 W 21.3 0.0 5.0
15:12 12.9 9.5 80 997.2 19.0 W 21.3 0.0 5.0
15:13 12.7 9.3 80 997.1 16.8 W 21.3 0.0 5.0
15:14 12.7 9.3 80 997.0 22.8 W 22.8 0.0 5.0
15:15 12.7 9.3 80 997.0 22.8 W 22.8 0.0 5.0
15:16 12.5 9.1 80 997.0 17.4 NW 22.8 0.0 5.0
15:17 12.5 9.1 80 997.1 16.8 W 22.8 0.0 5.0
15:18 12.5 9.1 80 997.1 14.5 W 22.8 0.0 5.0
15:19 12.4 9.6 83 997.0 16.8 W 22.8 0.0 5.0
15:20 12.4 9.6 83 996.9 17.4 W 22.8 0.0 5.0
15:21 12.4 9.6 83 996.8 24.4 W 24.4 0.0 5.0
15:22 12.4 9.8 84 997.0 24.4 NW 24.4 0.0 5.0
15:23 12.3 9.7 84 997.0 17.4 SW 24.4 0.0 5.0
15:24 12.3 9.7 84 996.9 21.3 SW 24.4 0.0 5.0
15:25 12.4 9.8 84 997.1 19.0 SW 24.4 0.0 5.0
15:26 12.4 9.8 84 997.0 20.6 WNW 24.4 0.0 5.0
15:27 12.5 9.3 81 997.2 16.8 W 24.4 0.0 5.0
15:28 12.5 9.3 81 997.1 17.4 W 24.4 0.0 5.0
15:29 12.5 9.3 81 997.1 19.0 W 24.4 0.0 5.0
15:30 12.5 9.3 81 997.1 21.3 W 24.4 0.0 5.0
15:31 12.5 9.3 81 997.1 17.4 W 24.4 0.0 5.0
15:32 12.5 9.3 81 997.1 18.3 W 21.3 0.0 5.0
15:33 12.5 9.3 81 997.2 22.8 W 22.8 0.0 5.0
15:34 12.5 9.3 81 997.2 17.4 SW 22.8 0.0 5.0
15:35 12.5 9.3 81 997.0 17.4 SW 22.8 0.0 5.0
15:36 12.5 9.3 81 997.1 22.1 NW 22.8 0.0 5.0
15:37 12.5 9.3 81 997.2 21.3 W 22.8 0.0 5.0
15:38 12.5 9.3 81 997.2 21.3 W 22.8 0.0 5.0
15:39 12.5 9.3 81 997.1 21.3 W 22.8 0.0 5.0
15:40 12.5 9.3 81 997.0 15.9 W 22.8 0.0 5.0
15:41 12.6 9.4 81 997.2 19.0 W 22.8 0.0 5.0
15:42 12.7 9.5 81 997.0 20.6 W 22.8 0.0 5.0
15:43 12.7 9.5 81 997.3 22.1 W 22.1 0.0 5.0
15:44 12.8 9.6 81 997.2 19.7 W 22.1 0.0 5.0
15:45 12.8 9.6 81 997.3 18.3 W 22.1 0.0 5.0
15:46 12.9 9.7 81 997.0 17.4 NW 22.1 0.0 5.0
15:47 12.9 9.7 81 997.2 13.6 W 22.1 0.0 5.0
15:48 12.9 9.7 81 997.3 17.4 SSW 22.1 0.0 5.0
15:49 12.9 9.5 80 997.2 15.9 NW 22.1 0.0 5.0
15:50 12.9 9.5 80 997.4 15.9 W 22.1 0.0 5.0
15:51 12.9 9.5 80 997.1 15.2 W 22.1 0.0 5.0
15:52 12.9 9.5 80 997.4 18.3 W 22.1 0.0 5.0
15:53 13.0 9.6 80 997.3 20.6 W 22.1 0.0 5.0
15:54 13.0 9.6 80 997.2 19.7 SW 20.6 0.0 5.0
15:55 13.0 9.6 80 997.5 18.3 W 20.6 0.0 5.0
15:56 13.0 9.6 80 997.2 14.5 NW 20.6 0.0 5.0
15:57 13.0 9.6 80 997.3 14.5 W 20.6 0.0 5.0
15:58 13.1 9.7 80 997.2 20.6 W 20.6 0.0 5.0
15:59 13.1 9.7 80 997.4 20.6 NW 20.6 0.0 5.0
16:00 13.1 9.7 80 997.3 13.6 NW 20.6 0.0 5.0
16:01 13.1 9.7 80 997.4 17.4 WNW 20.6 0.0 5.0
16:02 13.1 9.7 80 997.3 18.3 W 20.6 0.0 5.0
16:03 13.1 9.5 79 997.2 22.8 NW 22.8 0.0 5.0
16:04 13.1 9.5 79 997.2 22.8 NW 22.8 0.0 5.0
16:05 13.0 9.4 79 997.5 23.5 NW 23.5 0.0 5.0
16:06 13.0 9.4 79 997.4 15.9 W 23.5 0.0 5.0
16:07 13.0 9.4 79 997.3 19.0 SW 23.5 0.0 5.0
16:08 12.9 9.4 79 997.4 19.7 W 23.5 0.0 5.0
16:09 12.9 9.4 79 997.5 16.8 W 23.5 0.0 5.0
16:10 12.8 9.3 79 997.5 18.3 NW 23.5 0.0 5.0
16:12 12.8 9.3 79 997.4 16.8 W 23.5 0.0 5.0
16:13 12.8 9.3 79 997.5 17.4 WNW 23.5 0.0 5.0
16:14 12.8 9.3 79 997.5 13.6 SW 23.5 0.0 5.0
16:15 12.9 9.4 79 997.5 13.0 W 19.7 0.0 5.0
16:16 12.9 9.4 79 997.6 12.1 NW 19.7 0.0 5.0
16:17 12.9 9.4 79 997.5 12.1 NW 19.7 0.0 5.0
16:18 12.9 9.4 79 997.5 11.4 W 19.0 0.0 5.0
16:19 13.0 9.4 79 997.7 13.6 WNW 19.0 0.0 5.0
16:20 13.0 9.4 79 997.5 14.5 W 19.0 0.0 5.0
16:21 13.0 9.4 79 997.7 14.5 W 19.0 0.0 5.0
16:22 13.0 9.4 79 997.6 16.8 NW 17.4 0.0 5.0
16:23 13.0 9.4 79 997.6 19.0 SW 19.0 0.0 5.0
16:24 13.0 9.4 79 997.6 19.0 W 19.0 0.0 5.0
16:25 13.0 9.4 79 997.5 21.3 NW 21.3 0.0 5.0
16:26 13.0 9.4 79 997.6 22.1 NW 22.1 0.0 5.0
16:27 13.0 9.4 79 997.5 19.7 W 22.1 0.0 5.0
16:28 12.9 9.4 79 997.5 15.9 SW 22.1 0.0 5.0
16:29 12.9 9.4 79 997.8 16.8 NE 22.1 0.0 5.0
16:30 12.9 9.4 79 997.6 15.9 NW 22.1 0.0 5.0
16:31 12.9 9.4 79 997.6 16.8 W 22.1 0.0 5.0
16:32 12.9 9.4 79 997.6 16.8 W 22.1 0.0 5.0
16:33 12.9 9.4 79 997.8 21.3 W 22.1 0.0 5.0
16:34 12.9 9.4 79 997.6 19.0 NW 22.1 0.0 5.0
16:35 12.9 9.4 79 997.7 19.0 W 22.1 0.0 5.0
16:36 12.9 9.4 79 997.8 19.0 W 22.1 0.0 5.0
16:37 12.8 9.3 79 998.0 19.7 W 21.3 0.0 5.0
16:38 12.8 9.3 79 997.8 19.7 W 21.3 0.0 5.0
16:39 12.8 9.3 79 997.7 14.5 W 21.3 0.0 5.0
16:40 12.8 9.3 79 997.7 13.6 NW 21.3 0.0 5.0
16:41 12.8 9.3 79 997.8 14.5 NW 21.3 0.0 5.0
16:42 12.8 9.3 79 997.7 14.5 NW 21.3 0.0 5.0
16:43 12.8 9.3 79 997.7 13.6 SW 21.3 0.0 5.0
16:44 12.7 9.2 79 997.9 16.8 W 19.7 0.0 5.0
16:45 12.7 9.2 79 997.9 15.2 W 19.7 0.0 5.0
16:46 12.7 9.2 79 998.0 16.8 SW 19.7 0.0 5.0
16:47 12.7 9.2 79 997.9 21.3 W 21.3 0.0 5.0
16:48 12.6 9.1 79 997.8 13.6 NW 21.3 0.0 5.0
16:49 12.6 9.1 79 998.0 15.2 NW 21.3 0.0 5.0
16:50 12.6 9.1 79 997.8 20.6 W 21.3 0.0 5.0
16:51 12.5 9.0 79 998.1 13.6 NW 21.3 0.0 5.0
16:52 12.5 9.0 79 997.6 13.0 WNW 21.3 0.0 5.0
16:53 12.5 9.0 79 998.0 12.1 W 21.3 0.0 5.0
16:54 12.5 9.0 79 998.1 14.5 SW 21.3 0.0 5.0
16:55 12.4 9.2 81 997.9 18.3 W 21.3 0.0 5.0
16:56 12.4 9.2 81 998.0 19.0 W 21.3 0.0 5.0
16:57 12.4 9.2 81 997.9 19.0 W 20.6 0.0 5.0
16:58 12.4 9.2 81 997.9 15.9 NW 20.6 0.0 5.0
16:59 12.4 9.2 81 998.1 13.6 W 20.6 0.0 5.0
17:00 12.4 9.2 81 998.1 13.6 W 20.6 0.0 5.0
17:01 12.4 9.2 81 998.1 13.6 W 19.0 0.0 5.0
17:02 12.4 9.2 81 997.9 13.6 W 19.0 0.0 5.0
17:03 12.4 9.2 81 998.0 13.6 W 19.0 0.0 5.0
17:04 12.4 9.2 81 997.8 13.6 W 19.0 0.0 5.0
17:05 12.4 9.2 81 997.9 13.6 W 19.0 0.0 5.0
17:06 12.4 9.2 81 998.1 13.6 W 19.0 0.0 5.0
17:07 12.4 9.4 82 998.1 15.2 W 19.0 0.0 5.0
17:08 12.4 9.4 82 998.0 19.7 SW 19.7 0.0 5.0
17:09 12.4 9.4 82 998.1 13.6 W 19.7 0.0 5.0
17:10 12.4 9.4 82 998.2 13.6 W 19.7 0.0 5.0
17:11 12.6 9.2 80 998.1 23.5 NW 23.5 0.0 5.0
17:12 12.6 9.2 80 998.1 23.5 W 23.5 0.0 5.0
17:13 12.6 9.2 80 997.9 12.1 W 23.5 0.0 5.0
17:14 12.6 9.2 80 998.0 11.4 W 23.5 0.0 5.0
17:15 12.7 9.3 80 997.9 14.5 W 23.5 0.0 5.0
17:17 12.6 9.2 80 998.1 15.2 W 23.5 0.0 5.0
17:18 12.6 9.2 80 998.0 18.3 NW 23.5 0.0 5.0
17:19 12.6 9.2 80 997.9 18.3 NW 23.5 0.0 5.0
17:20 12.6 9.1 79 998.2 17.4 N 23.5 0.0 5.0
17:21 12.5 9.0 79 998.2 15.9 W 23.5 0.0 5.0
17:22 12.5 9.0 79 998.3 16.8 NW 23.5 0.0 5.0
17:23 12.4 9.2 81 998.2 17.4 W 18.3 0.0 5.0
17:24 12.4 9.2 81 998.1 13.6 W 18.3 0.0 5.0
17:25 12.4 9.2 81 998.1 13.6 W 18.3 0.0 5.0
17:26 12.3 9.1 81 998.2 19.0 W 19.0 0.0 5.0
17:27 12.3 9.1 81 998.3 19.0 W 19.0 0.0 5.0
17:28 12.3 9.1 81 998.2 19.0 W 19.0 0.0 5.0
17:29 12.3 9.1 81 998.1 14.5 W 19.0 0.0 5.0
17:30 12.3 9.1 81 998.0 19.7 W 19.7 0.0 5.0
17:31 12.2 9.0 81 998.2 17.4 W 19.7 0.0 5.0
17:32 12.2 9.0 81 998.1 17.4 W 19.7 0.0 5.0
17:33 12.2 9.0 81 998.3 12.1 W 19.7 0.0 5.0
17:34 12.2 9.0 81 998.2 14.5 W 19.7 0.0 5.0
17:35 12.2 9.0 81 998.3 15.9 W 19.7 0.0 5.0
17:36 12.1 8.9 81 998.0 17.4 W 19.7 0.0 5.0
17:37 12.1 8.9 81 998.2 17.4 WNW 19.7 0.0 5.0
17:38 12.1 9.1 82 998.2 14.5 W 19.7 0.0 5.0
17:39 12.2 9.2 82 998.1 9.8 NW 19.7 0.0 5.0
17:40 12.2 9.2 82 998.1 9.8 NW 19.7 0.0 5.0
17:41 12.2 9.2 82 998.1 13.6 NW 19.7 0.0 5.0
17:42 12.2 9.2 82 998.2 13.6 W 19.7 0.0 5.0
17:43 12.2 9.2 82 998.1 14.5 W 19.7 0.0 5.0
17:44 12.2 9.2 82 998.0 9.2 NW 19.7 0.0 5.0
17:45 12.3 9.3 82 998.0 13.6 SW 19.7 0.0 5.0
17:46 12.3 9.3 82 998.3 18.3 NW 18.3 0.0 5.0
17:47 12.3 9.3 82 998.1 18.3 W 18.3 0.0 5.0
17:48 12.2 9.2 82 998.2 16.8 W 18.3 0.0 5.0
17:49 12.2 9.2 82 998.3 16.8 SW 18.3 0.0 5.0
17:50 12.2 9.2 82 998.2 14.5 W 18.3 0.0 5.0
17:51 12.2 9.2 82 998.2 12.1 W 18.3 0.0 5.0
17:52 12.2 9.2 82 998.4 16.8 W 18.3 0.0 5.0
17:53 12.1 9.1 82 998.3 14.5 WNW 18.3 0.0 5.0
17:54 12.1 8.9 81 998.5 12.1 NW 18.3 0.0 5.0
17:55 12.1 8.9 81 998.3 9.2 NW 18.3 0.0 5.0
17:56 12.1 8.9 81 998.4 9.8 W 18.3 0.0 5.0
17:57 12.1 9.1 82 998.2 14.5 NW 19.0 0.0 5.0
17:58 12.1 9.1 82 998.3 15.2 W 19.0 0.0 5.0
17:59 12.1 9.1 82 998.4 15.2 W 19.0 0.0 5.0
18:00 12.1 9.1 82 998.5 15.2 NW 19.0 0.0 5.0
18:01 12.1 9.1 82 998.4 11.4 W 19.0 0.0 5.0
18:02 12.1 9.1 82 998.4 10.7 NW 19.0 0.0 5.0
18:03 12.1 9.1 82 998.3 13.6 W 19.0 0.0 5.0
18:04 12.1 9.1 82 998.4 13.6 W 19.0 0.0 5.0
18:05 12.2 9.2 82 998.3 9.8 W 19.0 0.0 5.0
18:06 12.2 9.2 82 998.4 15.2 W 19.0 0.0 5.0
18:07 12.3 9.3 82 998.2 15.2 WNW 15.2 0.0 5.0
18:08 12.3 9.3 82 998.5 15.2 SW 15.2 0.0 5.0
18:09 12.3 9.3 82 998.5 16.8 W 16.8 0.0 5.0
18:10 12.3 9.3 82 998.6 13.6 NW 16.8 0.0 5.0
18:11 12.3 9.3 82 998.6 19.0 W 19.0 0.0 5.0
18:12 12.3 9.3 82 998.6 14.5 W 19.0 0.0 5.0
18:13 12.2 9.2 82 998.3 16.8 NW 19.0 0.0 5.0
18:14 12.2 9.2 82 998.4 16.8 W 19.0 0.0 5.0
18:15 12.2 9.2 82 998.6 12.1 W 19.0 0.0 5.0
18:16 12.1 9.1 82 998.7 13.6 W 19.0 0.0 5.0
18:17 12.1 9.1 82 998.6 15.2 SW 19.0 0.0 5.0
18:18 12.1 9.1 82 998.4 14.5 W 19.0 0.0 5.0
18:19 12.1 9.1 82 998.5 15.9 W 19.0 0.0 5.0
18:20 12.0 9.0 82 998.7 15.9 NW 19.0 0.0 5.0
18:21 12.0 9.0 82 998.6 12.1 W 16.8 0.0 5.0
18:22 12.0 9.0 82 998.6 9.8 N 16.8 0.0 5.0
18:23 12.0 9.0 82 998.5 11.4 NW 16.8 0.0 5.0
18:24 12.0 9.0 82 998.8 11.4 W 16.8 0.0 5.0
18:25 11.9 8.9 82 998.6 13.6 WNW 15.9 0.0 5.0
18:26 11.9 8.9 82 998.8 12.1 W 15.9 0.0 5.0
18:27 11.9 8.9 82 998.4 15.2 W 15.9 0.0 5.0
18:28 11.9 8.9 82 998.5 15.2 WNW 15.9 0.0 5.0
18:29 11.9 8.9 82 998.5 13.0 W 15.9 0.0 5.0
18:30 11.8 8.8 82 998.7 13.0 W 15.9 0.0 5.0
18:31 11.8 8.8 82 998.7 11.4 W 15.2 0.0 5.0
18:32 11.8 8.8 82 998.7 12.1 W 15.2 0.0 5.0
18:33 11.8 8.8 82 998.7 11.4 NW 15.2 0.0 5.0
18:34 11.8 8.8 82 998.6 11.4 W 15.2 0.0 5.0
18:35 11.8 8.8 82 998.7 11.4 NW 15.2 0.0 5.0
18:36 11.8 8.8 82 998.7 11.4 W 15.2 0.0 5.0
18:37 11.7 8.7 82 998.8 9.8 WNW 15.2 0.0 5.0
18:38 11.7 8.7 82 998.8 8.3 W 15.2 0.0 5.0
18:39 11.8 9.0 83 998.8 8.3 W 13.0 0.0 5.0
18:40 11.8 9.0 83 998.7 10.7 SW 13.0 0.0 5.0
18:41 11.8 9.0 83 998.8 18.3 W 18.3 0.0 5.0
18:42 11.8 9.0 83 998.7 15.9 NW 18.3 0.0 5.0
18:43 11.7 8.9 83 998.9 13.0 W 18.3 0.0 5.0
18:44 11.7 8.9 83 998.7 15.9 W 18.3 0.0 5.0
18:45 11.7 8.9 83 999.0 13.6 NW 18.3 0.0 5.0
18:46 11.7 8.9 83 998.8 14.5 NW 18.3 0.0 5.0
18:47 11.7 8.9 83 998.9 15.9 W 18.3 0.0 5.0
18:48 11.7 8.9 83 998.9 15.9 W 18.3 0.0 5.0
18:49 11.7 8.9 83 999.0 12.1 NW 18.3 0.0 5.0
18:50 11.6 8.8 83 998.9 9.8 SW 18.3 0.0 5.0
18:51 11.6 8.8 83 999.0 14.5 NW 18.3 0.0 5.0
18:52 11.6 8.8 83 998.9 10.7 W 15.9 0.0 5.0
18:53 11.6 8.8 83 998.8 14.5 WNW 15.9 0.0 5.0
18:54 11.6 8.8 83 998.8 15.9 W 15.9 0.0 5.0
18:55 11.6 8.8 83 998.9 13.0 W 15.9 0.0 5.0
18:56 11.6 8.8 83 999.0 14.5 S 15.9 0.0 5.0
18:57 11.6 8.8 83 998.7 12.1 W 15.9 0.0 5.0
18:58 11.6 8.8 83 999.0 12.1 WNW 15.9 0.0 5.0
18:59 11.6 8.8 83 998.9 16.8 W 16.8 0.0 5.0
19:00 11.6 8.8 83 998.8 16.8 W 16.8 0.0 5.0
19:01 11.6 8.8 83 999.1 16.8 W 16.8 0.0 5.0
19:02 11.6 8.8 83 998.8 16.8 W 16.8 0.0 5.0
19:03 11.6 8.8 83 999.0 16.8 W 16.8 0.0 5.0
19:04 11.6 8.8 83 999.1 16.8 W 16.8 0.0 5.0
19:05 11.6 8.8 83 998.9 16.8 W 16.8 0.0 5.0
19:06 11.6 8.8 83 999.0 16.8 W 16.8 0.0 5.0
19:07 11.5 8.7 83 999.0 11.4 NW 16.8 0.0 5.0
19:08 11.5 8.7 83 999.1 9.2 NW 16.8 0.0 5.0
19:09 11.5 8.7 83 999.1 13.6 W 16.8 0.0 5.0
19:10 11.5 8.7 83 999.0 14.5 W 16.8 0.0 5.0
19:11 11.5 8.7 83 999.0 14.5 NW 16.8 0.0 5.0
19:12 11.5 8.7 83 999.1 15.2 W 16.8 0.0 5.0
19:13 11.5 8.7 83 999.3 9.8 W 16.8 0.0 5.0
19:14 11.5 8.7 83 999.0 13.6 NW 16.8 0.0 5.0
19:15 11.5 8.7 83 999.3 13.6 W 16.8 0.0 5.0
19:16 11.4 8.6 83 999.2 13.6 NW 16.8 0.0 5.0
19:17 11.4 8.6 83 999.0 13.0 NW 15.2 0.0 5.0
19:18 11.4 8.6 83 999.3 13.6 W 15.2 0.0 5.0
19:19 11.5 8.7 83 999.3 13.6 W 15.2 0.0 5.0
19:20 11.4 8.6 83 999.4 10.7 W 15.2 0.0 5.0
19:21 11.4 8.6 83 999.3 10.7 NW 15.2 0.0 5.0
19:22 11.4 8.6 83 999.2 13.0 W 15.2 0.0 5.0
19:23 11.4 8.6 83 999.4 9.8 WNW 13.6 0.0 5.0
19:24 11.4 8.6 83 999.4 14.5 NW 14.5 0.0 5.0
19:25 11.5 8.7 83 999.2 10.7 W 14.5 0.0 5.0
19:26 11.4 8.6 83 999.5 10.7 NW 14.5 0.0 5.0
19:27 11.4 8.6 83 999.5 18.3 W 18.3 0.0 5.0
19:28 11.4 8.6 83 999.2 14.5 W 18.3 0.0 5.0
19:29 11.4 8.6 83 999.2 11.4 N 18.3 0.0 5.0
19:30 11.4 8.6 83 999.4 21.3 NW 21.3 0.0 5.0
19:31 11.4 8.6 83 999.4 15.9 W 21.3 0.0 5.0
19:32 11.4 8.6 83 999.3 15.2 W 21.3 0.0 5.0
19:33 11.4 8.6 83 999.4 13.6 NW 21.3 0.0 5.0
19:34 11.4 8.6 83 999.4 11.4 NW 21.3 0.0 5.0
19:35 11.3 8.5 83 999.2 14.5 W 21.3 0.0 5.0
19:36 11.3 8.5 83 999.2 11.4 W 21.3 0.0 5.0
19:37 11.3 8.5 83 999.5 12.1 SW 21.3 0.0 5.0
19:38 11.3 8.5 83 999.2 11.4 W 21.3 0.0 5.0
19:39 11.3 8.5 83 999.4 10.7 NW 21.3 0.0 5.0
19:40 11.3 8.5 83 999.4 9.8 W 15.9 0.0 5.0
19:41 11.3 8.5 83 999.4 12.1 W 15.2 0.0 5.0
19:42 11.3 8.5 83 999.4 12.1 W 14.5 0.0 5.0
19:43 11.3 8.5 83 999.4 14.5 W 16.8 0.0 5.0
19:44 11.3 8.5 83 999.5 13.6 SW 16.8 0.0 5.0
19:45 11.3 8.5 83 999.4 13.6 NW 16.8 0.0 5.0
19:46 11.3 8.5 83 999.5 13.6 NW 16.8 0.0 5.0
19:47 11.3 8.5 83 999.3 17.4 W 17.4 0.0 5.0
19:48 11.3 8.5 83 999.8 14.5 NW 17.4 0.0 5.0
19:49 11.3 8.5 83 999.5 13.0 WSW 17.4 0.0 5.0
19:50 11.3 8.5 83 999.6 14.5 W 17.4 0.0 5.0
19:51 11.3 8.5 83 999.7 15.2 W 17.4 0.0 5.0
19:52 11.2 8.4 83 999.5 12.1 NW 17.4 0.0 5.0
19:53 11.2 8.4 83 999.5 10.7 NW 17.4 0.0 5.0
19:54 11.2 8.4 83 999.8 13.6 NW 17.4 0.0 5.0
19:55 11.2 8.4 83 999.6 12.1 W 17.4 0.0 5.0
19:56 11.2 8.4 83 999.7 12.1 W 17.4 0.0 5.0
19:57 11.2 8.4 83 999.9 12.1 W 15.2 0.0 5.0
19:58 11.2 8.4 83 999.6 11.4 WSW 15.2 0.0 5.0
19:59 11.2 8.4 83 999.8 11.4 W 15.2 0.0 5.0
20:00 11.2 8.6 84 999.6 9.2 W 15.2 0.0 5.0
20:01 11.2 8.6 84 999.7 13.6 N 14.5 0.0 5.0
20:02 11.2 8.6 84 999.8 9.2 W 14.5 0.0 5.0
20:03 11.2 8.6 84 999.6 10.7 NW 13.6 0.0 5.0
20:04 11.2 8.6 84 1000.0 10.7 NW 13.6 0.0 5.0
20:05 11.1 8.5 84 999.8 12.1 N 15.2 0.0 5.0
20:06 11.1 8.5 84 999.7 13.6 WNW 15.2 0.0 5.0
20:07 11.1 8.5 84 999.6 13.6 NW 15.2 0.0 5.0
20:08 11.1 8.5 84 999.7 12.1 NW 15.2 0.0 5.0
20:09 11.1 8.5 84 999.9 9.8 NW 15.2 0.0 5.0
20:10 11.1 8.5 84 999.8 11.4 W 15.2 0.0 5.0
20:11 11.1 8.5 84 999.9 9.2 W 15.2 0.0 5.0
20:12 11.1 8.5 84 999.9 7.6 W 15.2 0.0 5.0
20:13 11.1 8.5 84 999.8 9.2 NW 15.2 0.0 5.0
20:14 11.1 8.5 84 999.9 9.2 NW 15.2 0.0 5.0
20:15 11.0 8.4 84 1000.0 10.7 NW 13.6 0.0 5.0
20:16 11.0 8.4 84 999.7 10.7 W 13.6 0.0 5.0
20:17 11.0 8.4 84 999.8 13.0 NW 13.0 0.0 5.0
20:18 11.0 8.4 84 999.7 16.8 NW 16.8 0.0 5.0
20:19 11.0 8.4 84 999.9 12.1 W 16.8 0.0 5.0
20:20 11.0 8.4 84 999.8 12.1 NW 16.8 0.0 5.0
20:21 11.0 8.4 84 1000.0 9.8 W 16.8 0.0 5.0
20:22 11.0 8.4 84 1000.0 10.7 W 16.8 0.0 5.0
20:23 11.0 8.4 84 999.8 15.2 SW 16.8 0.0 5.0
20:24 11.0 8.4 84 999.8 12.1 W 16.8 0.0 5.0
20:25 11.0 8.4 84 999.9 15.2 W 16.8 0.0 5.0
20:26 11.0 8.4 84 999.7 9.2 NW 16.8 0.0 5.0
20:27 11.0 8.4 84 999.8 7.6 W 16.8 0.0 5.0
20:28 11.0 8.4 84 999.7 11.4 W 15.2 0.0 5.0
20:29 10.9 8.3 84 1000.0 11.4 NW 15.2 0.0 5.0
20:30 10.9 8.3 84 999.8 9.8 SW 15.2 0.0 5.0
20:31 10.9 8.3 84 999.8 9.2 W 15.2 0.0 5.0
20:32 10.9 8.3 84 1000.0 10.7 NW 15.2 0.0 5.0
20:33 10.9 8.3 84 999.9 10.7 W 15.2 0.0 5.0
20:34 10.9 8.3 84 999.8 10.7 W 15.2 0.0 5.0
20:35 10.9 8.5 85 999.8 6.9 W 15.2 0.0 5.0
20:36 10.9 8.5 85 999.8 15.9 WNW 15.9 0.0 5.0
20:37 10.9 8.5 85 1000.0 11.4 NW 15.9 0.0 5.0
20:38 10.9 8.5 85 999.9 13.0 W 15.9 0.0 5.0
20:39 10.9 8.5 85 1000.1 12.1 W 15.9 0.0 5.0
20:40 10.9 8.5 85 1000.1 9.8 NW 15.9 0.0 5.0
20:41 10.9 8.5 85 1000.0 13.6 W 15.9 0.0 5.0
20:42 10.9 8.5 85 1000.1 15.9 W 15.9 0.0 5.0
20:43 10.9 8.5 85 1000.3 9.8 NW 15.9 0.0 5.0
20:44 10.9 8.5 85 1000.1 9.8 NW 15.9 0.0 5.0
20:45 10.9 8.5 85 1000.1 9.8 W 15.9 0.0 5.0
20:46 10.9 8.5 85 1000.1 13.6 W 15.9 0.0 5.0
20:47 10.9 8.5 85 999.9 13.0 W 15.9 0.0 5.0
20:48 10.9 8.5 85 1000.1 13.0 W 15.9 0.0 5.0
20:49 10.9 8.5 85 1000.3 10.7 W 15.9 0.0 5.0
20:50 10.9 8.5 85 1000.1 13.0 W 15.9 0.0 5.0
20:51 10.8 8.4 85 1000.2 13.0 W 15.9 0.0 5.0
20:52 10.9 8.5 85 1000.2 9.8 NW 15.9 0.0 5.0
20:53 10.8 8.4 85 1000.4 10.7 W 14.5 0.0 5.0
20:54 10.8 8.4 85 1000.2 9.8 NW 14.5 0.0 5.0
20:55 10.8 8.4 85 1000.3 9.8 W 14.5 0.0 5.0
20:56 10.8 8.4 85 1000.1 8.3 NW 14.5 0.0 5.0
20:57 10.8 8.6 86 1000.3 9.2 SW 13.0 0.0 5.0
20:58 10.8 8.6 86 1000.2 10.7 W 13.0 0.0 5.0
20:59 10.8 8.6 86 1000.4 9.2 W 13.0 0.0 5.0
21:00 10.8 8.6 86 1000.3 9.2 W 13.0 0.0 5.0
21:01 10.8 8.6 86 1000.3 9.2 W 10.7 0.0 5.0
21:02 10.8 8.6 86 1000.4 9.2 W 10.7 0.0 5.0
21:03 10.8 8.6 86 1000.5 9.2 W 10.7 0.0 5.0
21:04 10.8 8.6 86 1000.5 9.2 W 10.7 0.0 5.0
21:05 10.8 8.6 86 1000.3 9.2 W 10.7 0.0 5.0
21:06 10.8 8.6 86 1000.4 9.2 W 10.7 0.0 5.0
21:07 10.7 8.5 86 1000.4 11.4 W 11.4 0.0 5.0
21:08 10.7 8.5 86 1000.4 9.8 SW 11.4 0.0 5.0
21:09 10.7 8.5 86 1000.4 13.0 W 13.0 0.0 5.0
21:10 10.7 8.5 86 1000.4 9.2 W 13.0 0.0 5.0
21:11 10.7 8.5 86 1000.2 10.7 W 13.0 0.0 5.0
21:12 10.7 8.5 86 1000.4 7.6 W 13.0 0.0 5.0
21:13 10.7 8.5 86 1000.5 7.6 W 13.0 0.0 5.0
21:14 10.7 8.5 86 1000.5 8.3 W 13.0 0.0 5.0
21:15 10.6 8.4 86 1000.5 9.2 W 13.0 0.0 5.0
21:16 10.6 8.4 86 1000.3 12.1 W 13.0 0.0 5.0
21:18 10.6 8.4 86 1000.7 12.1 W 13.0 0.0 5.0
21:19 10.6 8.4 86 1000.6 12.1 SW 13.0 0.0 5.0
21:20 10.6 8.4 86 1000.5 9.2 W 12.1 0.0 5.0
21:21 10.6 8.5 87 1000.6 9.8 W 12.1 0.0 5.0
21:22 10.6 8.5 87 1000.5 9.8 W 12.1 0.0 5.0
21:23 10.6 8.5 87 1000.3 15.9 W 15.9 0.0 5.0
21:24 10.6 8.5 87 1000.5 9.8 W 15.9 0.0 5.0
21:25 10.6 8.5 87 1000.6 8.3 W 15.9 0.0 5.0
21:26 10.6 8.5 87 1000.7 8.3 SW 15.9 0.0 5.0
21:27 10.6 8.5 87 1000.6 10.7 NW 17.4 0.0 5.0
21:28 10.6 8.5 87 1000.5 8.3 NW 17.4 0.0 5.0
21:29 10.6 8.5 87 1000.7 8.3 NW 17.4 0.0 5.0
21:30 10.6 8.5 87 1000.7 12.1 SW 17.4 0.0 5.0
21:31 10.6 8.5 87 1000.9 12.1 W 17.4 0.0 5.0
21:32 10.6 8.5 87 1000.7 13.6 W 17.4 0.0 5.0
21:33 10.6 8.5 87 1000.7 10.7 NW 17.4 0.0 5.0
21:34 10.6 8.5 87 1000.7 10.7 NW 17.4 0.0 5.0
21:35 10.6 8.5 87 1001.0 9.2 NW 17.4 0.0 5.0
21:36 10.6 8.5 87 1000.9 9.8 SW 17.4 0.0 5.0
21:37 10.6 8.5 87 1000.8 9.8 W 17.4 0.0 5.0
21:38 10.6 8.5 87 1001.0 9.8 NW 13.6 0.0 5.0
21:39 10.6 8.5 87 1000.8 9.8 SW 13.6 0.0 5.0
21:40 10.6 8.5 87 1000.8 9.8 WSW 13.6 0.0 5.0
21:41 10.6 8.5 87 1001.0 9.2 W 13.6 0.0 5.0
21:42 10.6 8.5 87 1000.8 9.2 W 13.6 0.0 5.0
21:43 10.6 8.5 87 1000.7 13.6 W 13.6 0.0 5.0
21:44 10.6 8.5 87 1001.0 12.1 W 13.6 0.0 5.0
21:45 10.6 8.5 87 1000.9 12.1 NW 13.6 0.0 5.0
21:46 10.6 8.5 87 1000.9 9.8 NW 13.6 0.0 5.0
21:47 10.6 8.5 87 1000.9 13.0 W 13.6 0.0 5.0
21:48 10.6 8.5 87 1000.8 9.8 W 13.6 0.0 5.0
21:49 10.6 8.5 87 1001.0 9.8 W 13.6 0.0 5.0
21:50 10.6 8.5 87 1001.0 9.2 W 13.6 0.0 5.0
21:51 10.6 8.5 87 1001.0 12.1 W 13.6 0.0 5.0
21:52 10.6 8.5 87 1000.8 12.1 NW 13.6 0.0 5.0
21:53 10.6 8.5 87 1001.1 8.3 NW 13.6 0.0 5.0
21:54 10.6 8.5 87 1000.9 11.4 W 13.0 0.0 5.0
21:55 10.6 8.5 87 1001.2 8.3 W 13.0 0.0 5.0
21:56 10.6 8.5 87 1001.2 8.3 W 13.0 0.0 5.0
21:57 10.6 8.5 87 1001.2 10.7 NW 12.1 0.0 5.0
21:58 10.6 8.5 87 1000.9 13.0 NW 13.0 0.0 5.0
21:59 10.5 8.4 87 1001.2 11.4 NW 13.0 0.0 5.0
22:00 10.5 8.4 87 1001.2 11.4 NW 13.0 0.0 5.0
22:01 10.5 8.4 87 1001.0 16.8 NW 16.8 0.0 5.0
22:02 10.5 8.4 87 1001.3 16.8 SW 16.8 0.0 5.0
22:03 10.5 8.4 87 1001.2 12.1 W 16.8 0.0 5.0
22:04 10.5 8.4 87 1001.1 12.1 NW 16.8 0.0 5.0
22:05 10.5 8.4 87 1001.1 7.6 W 16.8 0.0 5.0
22:06 10.5 8.4 87 1001.2 9.2 W 16.8 0.0 5.0
22:07 10.5 8.4 87 1001.2 7.6 W 16.8 0.0 5.0
22:08 10.5 8.4 87 1001.2 8.3 W 16.8 0.0 5.0
22:09 10.5 8.4 87 1001.4 9.2 W 16.8 0.0 5.0
22:10 10.5 8.4 87 1001.2 7.6 W 16.8 0.0 5.0
22:11 10.5 8.4 87 1001.3 12.1 W 16.8 0.0 5.0
22:12 10.5 8.4 87 1001.2 10.7 SW 12.1 0.0 5.0
22:13 10.5 8.4 87 1001.4 13.6 W 13.6 0.0 5.0
22:14 10.5 8.4 87 1001.3 9.2 NW 13.6 0.0 5.0
22:15 10.5 8.4 87 1001.0 10.7 W 13.6 0.0 5.0
22:16 10.5 8.4 87 1001.0 10.7 W 13.6 0.0 5.0
22:17 10.5 8.4 87 1001.3 11.4 W 13.6 0.0 5.0
22:18 10.5 8.4 87 1001.2 13.0 SW 13.6 0.0 5.0
22:19 10.5 8.4 87 1001.2 13.6 W 13.6 0.0 5.0
22:20 10.5 8.4 87 1001.2 13.6 W 13.6 0.0 5.0
22:21 10.5 8.4 87 1001.2 10.7 NW 13.6 0.0 5.0
22:22 10.5 8.4 87 1001.3 9.8 SW 13.6 0.0 5.0
22:23 10.5 8.4 87 1001.3 9.8 SW 13.6 0.0 5.0
22:24 10.5 8.4 87 1001.2 15.2 W 15.2 0.0 5.0
22:26 10.5 8.4 87 1001.2 10.7 W 15.2 0.0 5.0
22:27 10.5 8.4 87 1001.1 7.6 W 15.2 0.0 5.0
22:28 10.5 8.4 87 1001.4 9.8 W 15.2 0.0 5.0
22:29 10.5 8.4 87 1001.3 8.3 W 15.2 0.0 5.0
22:30 10.5 8.4 87 1001.2 8.3 SW 15.2 0.0 5.0
22:31 10.5 8.4 87 1001.4 11.4 W 15.2 0.0 5.0
22:32 10.5 8.4 87 1001.5 11.4 W 15.2 0.0 5.0
22:33 10.5 8.4 87 1001.2 7.6 W 15.2 0.0 5.0
22:34 10.5 8.4 87 1001.5 7.6 W 15.2 0.0 5.0
22:35 10.5 8.4 87 1001.3 8.3 NW 12.1 0.0 5.0
22:36 10.5 8.4 87 1001.4 7.6 NW 12.1 0.0 5.0
22:37 10.5 8.4 87 1001.3 7.6 WNW 12.1 0.0 5.0
22:38 10.5 8.4 87 1001.3 8.3 W 11.4 0.0 5.0
22:39 10.5 8.4 87 1001.3 9.2 W 11.4 0.0 5.0
22:40 10.5 8.4 87 1001.3 6.9 NW 11.4 0.0 5.0
22:42 10.5 8.4 87 1001.4 9.2 W 11.4 0.0 5.0
22:43 10.5 8.4 87 1001.4 9.2 W 9.8 0.0 5.0
22:44 10.5 8.4 87 1001.4 9.2 W 9.8 0.0 5.0
22:45 10.5 8.4 87 1001.5 9.8 W 9.8 0.0 5.0
22:46 10.5 8.4 87 1001.7 9.8 WNW 9.8 0.0 5.0
22:47 10.5 8.4 87 1001.5 9.2 W 9.8 0.0 5.0
22:48 10.5 8.4 87 1001.5 12.1 W 12.1 0.0 5.0
22:49 10.5 8.4 87 1001.4 12.1 W 12.1 0.0 5.0
22:50 10.5 8.4 87 1001.5 10.7 W 12.1 0.0 5.0
22:51 10.5 8.4 87 1001.3 9.2 W 12.1 0.0 5.0
22:52 10.5 8.4 87 1001.4 8.3 W 12.1 0.0 5.0
22:53 10.5 8.6 88 1001.6 9.8 SW 12.1 0.0 5.0
22:54 10.6 8.7 88 1001.7 6.9 NW 12.1 0.0 5.0
22:55 10.6 8.7 88 1001.4 6.9 NW 12.1 0.0 5.0
22:56 10.6 8.7 88 1001.5 6.9 NW 12.1 0.0 5.0
22:57 10.6 8.7 88 1001.6 6.0 SW 12.1 0.0 5.0
22:58 10.6 8.7 88 1001.6 6.9 SW 12.1 0.0 5.0
22:59 10.6 8.7 88 1001.5 4.5 WNW 12.1 0.0 5.0
23:00 10.6 8.7 88 1001.5 4.5 WNW 9.8 0.0 5.0
23:01 10.6 8.7 88 1001.4 4.5 WNW 9.8 0.0 5.0
23:02 10.6 8.7 88 1001.5 4.5 WNW 9.8 0.0 5.0
23:03 10.6 8.7 88 1001.4 4.5 WNW 9.8 0.0 5.0
23:04 10.6 8.7 88 1001.6 4.5 WNW 6.9 0.0 5.0
23:05 10.6 8.7 88 1001.4 4.5 WNW 6.9 0.0 5.0
23:06 10.6 8.7 88 1001.6 4.5 WNW 6.9 0.0 5.0
23:07 10.6 8.7 88 1001.7 9.8 W 9.8 0.0 5.0
23:08 10.6 8.7 88 1001.5 8.3 W 9.8 0.0 5.0
23:09 10.6 8.7 88 1001.7 8.3 W 9.8 0.0 5.0
23:10 10.6 8.7 88 1001.5 10.7 W 10.7 0.0 5.0
23:11 10.6 8.7 88 1001.7 9.8 SW 10.7 0.0 5.0
23:12 10.6 8.7 88 1001.7 10.7 W 10.7 0.0 5.0
23:13 10.6 8.7 88 1001.5 12.1 W 12.1 0.0 5.0
23:14 10.6 8.9 89 1001.6 6.9 W 12.1 0.0 5.0
23:15 10.6 8.9 89 1001.5 9.2 SW 12.1 0.0 5.0
23:17 10.6 8.9 89 1001.5 9.8 W 12.1 0.0 5.0
23:18 10.6 8.9 89 1001.6 8.3 W 12.1 0.0 5.0
23:19 10.6 8.9 89 1001.5 8.3 W 12.1 0.0 5.0
23:20 10.6 8.9 89 1001.6 8.3 W 12.1 0.0 5.0
23:21 10.6 8.9 89 1001.7 7.6 N 12.1 0.0 5.0
23:22 10.6 8.9 89 1001.5 9.2 W 12.1 0.8 5.0
23:23 10.6 8.9 89 1001.5 6.0 NW 12.1 0.8 5.0
23:24 10.6 8.9 89 1001.7 12.1 SW 12.1 0.8 5.0
23:25 10.6 8.9 89 1001.7 12.1 SW 12.1 0.8 5.0
23:26 10.6 8.9 89 1001.7 12.1 WNW 12.1 0.8 5.0
23:28 10.6 8.9 89 1001.8 10.7 NW 12.1 0.0 5.0
23:29 10.6 8.9 89 1001.5 11.4 SW 12.1 0.0 5.0
23:30 10.5 8.8 89 1001.7 9.8 W 12.1 0.0 5.0
23:31 10.5 8.8 89 1001.6 10.7 W 12.1 0.0 5.0
23:32 10.5 8.8 89 1001.8 10.7 W 12.1 0.0 5.0
23:33 10.5 8.8 89 1001.9 12.1 SW 12.1 0.0 5.0
23:34 10.5 8.8 89 1001.6 11.4 NW 12.1 0.0 5.0
23:35 10.5 8.8 89 1001.8 13.6 W 13.6 0.0 5.0
23:36 10.5 8.8 89 1001.5 13.6 W 13.6 0.0 5.0
23:37 10.4 8.7 89 1001.7 11.4 W 13.6 0.0 5.0
23:38 10.4 8.7 89 1001.8 9.2 W 13.6 0.0 5.0
23:39 10.4 8.7 89 1001.8 9.8 W 13.6 0.0 5.0
23:40 10.4 8.7 89 1001.7 9.8 WSW 13.6 0.0 5.0
23:41 10.3 8.6 89 1001.8 8.3 W 13.6 0.0 5.0
23:42 10.3 8.6 89 1001.7 9.2 W 13.6 0.0 5.0
23:43 10.3 8.6 89 1001.9 12.1 NW 13.6 0.0 5.0
23:44 10.3 8.6 89 1002.0 8.3 W 13.6 0.0 5.0
23:45 10.3 8.6 89 1001.9 8.3 W 13.6 0.0 5.0
23:46 10.3 8.6 89 1001.9 9.2 W 12.1 0.0 5.0
23:47 10.3 8.6 89 1001.8 9.2 W 12.1 0.0 5.0
23:48 10.3 8.6 89 1002.0 9.8 W 12.1 0.0 5.0
23:49 10.3 8.6 89 1001.9 9.8 W 12.1 0.0 5.0
23:50 10.3 8.6 89 1001.8 8.3 W 12.1 0.0 5.0
23:51 10.3 8.6 89 1002.1 9.8 W 12.1 0.0 5.0
23:52 10.3 8.6 89 1001.9 11.4 W 12.1 0.0 5.0
23:53 10.3 8.6 89 1002.0 10.7 SW 12.1 0.0 5.0
23:54 10.3 8.6 89 1002.1 9.8 NE 12.1 0.0 5.0
23:55 10.3 8.6 89 1001.9 8.3 SW 12.1 0.0 5.0
23:56 10.3 8.6 89 1001.9 6.9 W 12.1 0.0 5.0
23:57 10.3 8.6 89 1001.8 10.7 W 12.1 0.0 5.0
23:58 10.3 8.6 89 1001.8 8.3 NW 12.1 0.0 5.0
23:59 10.3 8.6 89 1001.9 9.8 SW 12.1 0.0 5.0

 

 

UK - WEATHER STATION TOPSITES - UK World Weather Websites

Copyright © Carnkie Weather 2009 - 2021.